GFSCGP_prec_cloud_033.txt.gz
Cloud_Cover
67 44 100 100 66 100 100 100 98 100 100 100 88 97 66 63 92 6 7 44 99 54 95 100 100 100 100 96 100 100 100 100 100 100 100 100 100 100 100 100 100 85 100 87
96 42 85 94 100 89 99 73 100 100 100 100 95 100 68 43 93 67 100 100 100 99 93 96 84 100 100 100 100 69 63 98 100 100 100 99 100 34 7 14 12 18 59 61
95 90 100 100 98 89 99 87 23 100 100 94 99 62 75 100 100 100 66 6 32 98 30 34 62 98 100 95 100 81 63 14 10 19 93 100 17 21 21 12 5 5 5 5
99 80 98 99 84 99 94 88 100 100 100 100 100 99 100 100 49 20 67 100 100 100 41 18 6 10 5 63 83 54 19 10 5 15 29 9 5 4 0 0 2 5 24 12
100 53 49 38 88 100 97 60 85 90 92 100 100 43 26 76 100 100 100 84 36 98 72 5 4 0 1 5 5 7 5 5 10 7 4 2 0 0 0 0 0 5 5 3
100 90 90 100 100 96 98 91 97 99 100 100 100 70 100 80 93 100 100 32 5 87 9 67 36 0 5 5 5 5 4 0 3 2 6 48 12 0 0 0 5 24 62 89
100 100 100 100 99 100 100 33 73 85 100 100 100 100 92 83 97 100 100 5 90 32 2 78 13 5 2 0 0 0 0 0 0 5 0 0 0 0 0 47 54 80 99 82
100 100 100 100 100 100 94 96 100 97 96 100 100 67 54 100 99 96 37 99 66 58 31 28 2 0 0 0 0 0 0 0 0 0 2 1 0 0 2 5 11 41 85 97
70 100 100 97 100 98 100 98 46 99 100 92 94 94 1 0 0 6 0 32 100 100 97 0 0 0 0 0 0 0 0 0 0 0 5 5 5 5 31 87 55 100 100 82
6 64 100 100 67 84 80 94 33 8 100 100 100 100 68 18 91 20 3 55 72 68 0 0 0 0 0 0 0 0 46 0 0 0 0 5 86 50 85 93 100 100 100 100
100 100 100 100 66 100 100 100 100 82 90 100 100 100 75 58 55 4 1 0 0 0 0 0 0 0 0 0 0 0 0 0 0 5 5 7 83 87 100 99 99 100 100 100
98 99 100 100 100 16 99 100 100 100 6 100 14 10 4 67 5 0 0 0 0 0 0 0 0 0 0 0 0 0 0 2 5 5 4 4 5 84 90 100 100 100 100 97
100 92 94 83 79 58 8 90 100 82 44 30 2 3 5 3 0 0 0 0 0 0 0 0 0 0 0 0 0 0 1 5 5 5 14 46 95 100 100 100 100 100 89 75
4 20 64 99 39 4 5 5 6 27 5 5 3 0 0 0 0 0 0 0 0 0 0 0 5 5 5 29 73 98 91 90 34 79 81 98 100 100 100 100 100 100 100 100
4 5 5 5 3 5 21 66 5 18 1 1 0 0 0 4 5 0 0 0 1 14 10 0 0 5 5 7 13 9 25 75 100 100 100 100 100 100 100 98 96 100 99 100
5 5 5 0 0 0 5 2 7 4 0 0 0 0 0 4 3 2 0 0 5 5 5 5 2 5 5 14 16 5 5 5 26 64 100 100 100 79 100 34 100 100 100 100
5 3 0 0 0 0 0 0 0 0 0 0 0 0 0 0 0 0 5 75 53 5 5 5 5 5 5 7 5 15 5 13 33 85 88 100 100 100 87 94 100 100 100 100
4 2 0 0 0 0 0 0 0 0 0 0 5 5 0 0 1 2 0 5 5 5 5 18 9 7 93 5 5 5 29 37 78 100 100 100 96 100 100 100 100 100 100 100
4 2 0 0 0 0 0 0 0 0 0 0 5 5 5 5 5 5 5 5 5 5 18 29 5 30 5 5 5 5 5 9 19 96 92 96 100 100 99 100 100 100 100 100
5 0 2 0 0 0 4 0 0 0 1 5 5 3 2 2 5 5 5 5 5 5 5 26 100 68 5 5 5 5 12 8 69 99 97 97 99 100 100 100 100 100 100 100
8 6 3 7 28 5 5 1 0 0 0 2 5 5 5 5 5 5 5 5 5 7 42 42 18 5 5 18 72 98 84 88 99 91 100 100 100 100 100 100 100 100 100 100
6 40 21 67 79 12 5 8 3 2 5 5 5 5 5 5 33 5 5 5 35 96 92 30 5 22 87 96 100 100 100 100 100 100 100 96 99 97 100 100 100 100 100 100
6 8 5 5 5 5 5 5 5 19 18 5 5 5 6 5 5 30 36 100 100 95 74 76 66 100 100 100 100 59 99 100 94 81 96 88 76 99 100 100 100 100 100 100
5 36 5 5 5 5 5 5 11 99 75 16 43 12 8 5 10 93 100 100 83 59 82 100 100 100 100 97 73 58 100 100 87 100 21 82 100 97 100 96 89 89 96 100
9 7 5 18 5 5 5 9 33 85 100 99 61 64 30 42 100 100 100 98 93 100 100 100 92 75 38 23 89 100 100 100 81 22 49 14 5 5 5 0 0 5 5 5
75 26 18 11 96 28 40 100 79 38 6 34 46 6 80 100 100 100 64 73 62 100 100 84 42 49 90 98 100 100 100 100 95 54 13 8 2 0 0 4 5 5 5 0

GFSCGP_prec_cloud_036.txt.gz
Cloud_Cover
4 2 91 100 100 77 43 100 100 100 100 90 75 100 100 100 100 100 99 100 100 100 100 100 64 74 100 100 100 100 100 100 100 100 100 100 100 100 100 100 100 100 100 100
3 21 63 100 88 41 99 100 100 100 100 100 67 100 100 70 38 65 5 62 100 100 100 100 100 100 89 34 50 94 80 70 71 83 100 99 92 100 100 100 100 100 100 98
6 14 80 95 100 100 100 69 100 100 100 100 100 99 84 93 17 92 79 94 64 81 100 100 100 100 100 69 40 77 100 100 100 100 98 79 87 80 84 93 43 39 99 100
6 69 27 88 100 100 100 100 89 100 100 100 100 100 7 13 100 100 97 61 100 87 95 74 53 63 98 65 24 6 38 93 100 73 34 60 33 41 68 48 60 63 20 5
8 8 41 85 40 100 100 98 12 100 100 85 70 20 25 25 49 100 94 94 95 8 92 12 5 5 50 8 5 22 30 69 20 5 5 5 5 5 4 0 0 1 2 5
24 21 96 99 100 40 100 87 76 100 100 58 20 49 100 68 84 95 92 100 94 95 86 5 4 25 66 10 29 100 77 19 27 5 5 3 5 5 0 0 0 4 5 11
5 70 81 56 95 36 76 100 97 75 96 38 5 25 40 86 100 67 33 100 73 92 84 45 13 24 26 17 84 73 14 4 0 0 4 1 5 5 2 3 5 45 58 74
19 88 89 100 99 45 20 73 79 94 60 6 7 4 87 91 100 100 78 5 4 52 44 100 97 3 21 28 14 4 1 0 0 0 5 5 17 96 100 99 100 100 100 100
87 11 73 100 100 100 100 100 47 59 24 5 32 19 68 36 7 25 3 2 0 0 0 5 5 5 7 5 0 0 0 1 0 0 1 79 100 100 100 100 100 100 100 99
6 72 32 99 100 100 100 71 99 100 73 93 37 18 45 97 89 31 2 0 0 0 4 0 3 72 64 0 0 0 0 0 0 0 55 100 100 100 100 100 100 100 100 100
6 50 15 100 14 91 81 100 55 49 100 57 12 32 84 100 24 48 2 5 13 5 0 0 0 0 0 0 0 0 0 2 5 0 4 19 74 100 100 100 100 100 100 84
15 5 5 97 94 71 92 29 50 95 92 100 84 5 36 5 5 4 13 5 2 0 0 0 0 3 5 3 0 0 5 5 4 3 5 10 55 69 100 99 100 45 96 100
4 98 96 100 80 19 18 6 66 48 5 90 11 0 0 0 5 70 8 0 0 0 0 0 0 0 0 0 0 1 1 2 5 6 94 85 68 94 93 100 6 5 100 65
17 29 99 18 5 10 24 100 94 12 25 13 5 1 2 0 3 0 0 0 0 0 2 0 0 5 5 6 5 16 48 29 69 71 37 40 80 96 99 61 27 40 96 66
59 12 99 100 80 87 100 100 83 6 10 28 0 0 0 0 0 0 2 0 0 0 0 0 0 4 5 2 75 74 97 93 76 100 100 99 99 82 64 16 100 100 100 80
5 0 0 21 93 85 28 1 0 5 5 5 0 2 0 0 5 4 0 0 0 2 0 2 5 0 0 2 5 18 5 59 28 8 100 100 100 100 100 100 100 100 100 100
0 0 0 4 2 4 0 0 0 0 5 19 38 7 0 0 0 0 1 5 5 0 0 0 0 0 1 1 0 2 8 16 53 30 97 100 100 95 34 98 100 90 100 100
4 5 5 5 1 1 0 0 0 0 0 0 0 0 0 0 0 0 1 5 2 3 5 5 5 3 5 5 5 5 27 55 50 100 100 100 100 100 100 100 100 100 100 96
34 37 5 8 3 0 0 0 0 0 0 0 4 5 0 0 0 0 0 0 0 5 5 5 5 5 5 5 67 96 45 30 34 40 95 100 100 100 100 100 100 81 100 100
5 95 5 21 5 4 0 1 0 0 4 5 5 5 5 5 5 5 5 5 5 5 5 5 5 5 30 100 100 71 28 5 5 15 72 99 100 100 100 100 100 100 96 88
19 25 5 64 5 5 0 3 0 5 48 5 5 5 1 5 5 5 5 5 5 26 16 5 45 81 99 61 44 6 46 56 96 100 100 100 100 100 100 100 100 83 95 92
61 67 5 39 62 5 0 4 5 26 75 5 5 5 5 5 5 6 5 5 8 5 5 16 71 100 35 55 91 100 100 100 100 100 100 100 100 100 100 92 62 83 24 5
89 11 36 5 58 35 5 5 5 5 5 5 42 36 51 92 94 47 63 58 33 8 34 38 98 100 98 100 100 100 100 77 97 100 100 100 100 100 100 79 94 94 5 5
80 56 21 8 83 98 30 5 18 9 5 5 5 6 45 62 44 100 97 68 55 74 58 92 100 100 100 100 100 100 94 84 100 100 100 100 100 100 99 89 31 5 5 5
22 29 44 74 53 17 82 20 15 90 96 74 47 78 100 100 100 100 100 100 79 42 100 100 100 100 100 98 54 22 96 100 99 100 100 100 90 83 89 61 28 5 5 1
56 13 42 43 39 58 43 45 27 45 58 99 100 100 100 100 100 100 100 91 64 78 100 100 100 93 19 7 89 80 67 88 100 100 100 94 79 65 43 70 54 5 0 0

GFSCGP_prec_cloud_039.txt.gz
Cloud_Cover
0 0 5 6 69 100 58 98 100 100 100 100 100 80 100 100 100 100 100 88 82 100 100 100 100 100 100 100 100 100 100 100 100 100 100 100 100 100 100 100 100 100 100 100
2 1 5 41 100 100 66 98 100 100 100 100 100 100 100 100 98 47 92 82 95 100 100 100 100 100 100 100 100 100 100 100 100 100 100 100 100 100 100 100 100 100 100 100
2 2 16 72 71 47 100 86 96 95 100 100 100 100 100 100 100 100 63 100 100 100 84 100 100 100 100 100 100 100 100 100 100 100 100 100 100 100 100 100 100 100 99 75
5 0 5 100 8 30 92 83 93 97 82 100 100 100 100 17 84 100 100 98 100 100 99 74 18 5 18 86 54 100 100 100 100 56 53 9 58 25 59 90 69 70 52 47
56 7 5 5 15 53 99 98 17 37 100 100 99 100 100 100 100 85 96 100 100 100 100 100 93 50 29 10 38 5 47 99 99 79 16 16 23 18 25 5 5 4 0 1
5 5 2 5 14 68 81 99 59 74 100 95 95 100 100 99 91 54 98 100 100 5 44 77 91 100 100 68 99 50 87 100 100 100 100 73 39 37 9 5 2 0 5 6
5 6 5 5 32 16 79 100 97 100 100 11 40 23 10 60 100 100 98 86 6 5 5 5 6 75 100 89 49 85 100 100 100 96 99 71 55 20 5 5 5 5 60 98
5 5 3 5 15 15 5 72 99 100 22 13 97 53 99 23 62 56 90 100 26 5 5 7 10 88 100 100 100 100 100 100 100 99 46 57 92 30 7 13 6 72 89 100
0 8 5 5 5 97 37 7 77 5 6 36 14 9 6 25 51 45 5 5 36 48 5 0 41 4 6 96 100 100 99 92 34 13 47 2 2 4 26 42 43 100 100 100
0 28 9 73 5 39 69 30 82 15 22 8 10 27 90 5 17 36 6 15 14 5 4 2 14 18 37 83 85 18 5 3 0 0 0 0 0 4 31 75 100 100 100 100
0 5 95 5 31 43 29 5 5 16 52 17 7 99 10 5 6 50 8 6 2 2 0 0 4 2 0 7 7 8 0 0 0 0 0 5 5 10 24 100 100 100 91 87
0 0 2 5 6 68 82 5 7 34 36 5 5 97 52 5 22 100 67 5 5 0 0 0 0 0 0 0 0 0 0 0 0 0 3 4 15 9 48 100 14 64 57 74
0 0 0 5 17 5 45 12 6 4 73 54 4 4 5 100 100 21 99 5 5 0 0 0 3 0 0 0 0 0 0 5 5 24 63 15 38 51 80 93 98 100 99 92
1 0 0 42 6 47 12 7 5 4 6 13 10 1 5 97 19 73 100 16 1 0 0 0 0 2 5 5 26 23 8 33 59 50 6 37 51 52 90 100 100 100 96 100
2 2 4 77 52 38 96 9 3 13 28 5 26 9 5 65 91 23 24 2 5 0 5 5 5 75 37 5 8 23 96 100 69 17 87 82 63 100 100 100 94 100 97 89
0 3 5 56 6 44 100 20 6 17 38 5 5 50 4 0 0 0 0 0 0 5 5 2 5 0 2 5 50 100 98 11 61 66 5 46 85 100 100 100 100 100 100 100
5 4 4 1 0 0 20 94 77 18 0 0 4 2 0 0 0 0 0 0 4 4 0 4 5 5 5 5 5 5 22 99 81 8 64 21 93 100 100 100 100 100 100 100
5 5 5 0 0 3 3 0 4 0 0 0 0 0 0 1 1 2 1 5 1 0 0 1 5 5 3 5 5 5 2 4 5 5 36 94 95 100 100 100 100 100 100 100
2 3 0 0 5 4 5 2 4 0 0 0 5 0 0 0 0 0 0 0 4 5 2 5 2 1 5 5 5 5 5 5 8 70 96 100 100 100 100 100 100 100 100 100
2 0 5 11 5 4 5 2 0 0 5 5 5 0 0 0 0 0 0 0 0 0 5 5 5 5 5 5 5 6 21 92 96 95 100 100 100 100 100 100 100 100 100 100
8 26 1 25 5 5 5 1 4 3 4 0 0 0 0 4 5 2 1 2 5 5 8 9 5 5 5 17 68 91 100 100 100 100 100 100 100 100 100 100 100 100 100 100
5 13 1 0 4 5 1 4 1 0 0 0 0 4 5 5 17 9 8 13 51 57 16 5 5 71 97 100 58 78 100 100 100 100 100 100 91 84 98 100 100 100 100 100
7 2 5 1 5 8 5 5 5 5 5 4 2 0 5 5 12 16 6 5 5 5 5 18 100 100 100 89 100 100 99 100 100 96 99 98 95 100 100 100 100 100 94 100
5 5 4 5 96 65 6 5 5 5 5 5 5 5 7 59 78 26 18 5 7 38 93 100 100 100 100 100 100 100 100 99 85 33 9 71 97 71 19 72 46 74 99 83
99 7 61 90 99 43 72 19 6 5 5 5 5 5 41 95 66 58 83 100 99 77 100 100 100 100 100 100 100 87 71 33 5 5 8 5 5 5 9 86 98 95 99 100
100 100 100 90 60 80 86 87 98 78 44 37 34 48 83 99 100 100 100 100 100 100 100 100 100 100 96 92 54 59 18 5 5 5 5 5 5 10 88 99 100 100 100 100

GFSCGP_prec_cloud_045.txt.gz
Cloud_Cover
0 0 0 0 0 1 0 5 62 70 54 97 81 76 100 100 100 100 100 100 100 100 100 100 100 98 5 7 76 100 100 100 100 100 100 100 100 100 100 100 100 100 100 100
0 0 0 0 0 0 5 5 51 100 100 100 71 96 100 100 100 100 100 62 96 100 100 100 100 100 99 52 66 98 89 100 100 100 100 100 100 100 100 100 100 100 99 99
0 0 0 0 0 0 3 88 64 46 97 100 100 100 100 100 100 100 100 100 100 100 100 100 100 100 100 100 82 42 48 100 96 88 74 82 100 100 100 41 91 97 100 100
3 0 0 0 0 0 4 11 100 69 53 95 100 100 100 100 100 100 100 100 100 100 100 100 100 100 100 100 100 100 100 92 90 56 61 45 48 40 23 76 100 100 100 100
3 0 4 0 0 0 0 4 5 14 50 100 100 100 100 100 100 75 100 100 100 100 35 12 11 9 51 67 98 96 97 99 100 95 79 51 38 62 73 72 99 94 100 100
3 0 1 1 0 0 0 0 9 71 95 99 100 85 53 70 100 100 74 99 100 100 99 100 99 100 100 100 100 100 100 100 55 34 78 99 100 100 100 99 100 100 97 34
5 2 0 5 0 1 5 5 32 66 98 84 100 72 100 73 79 100 100 100 100 92 89 96 72 75 79 100 94 41 55 96 100 100 94 100 100 100 100 100 100 100 100 84
5 5 0 5 5 1 5 5 5 6 76 83 100 100 82 100 95 100 100 100 100 100 100 61 18 20 84 86 70 18 100 100 95 94 100 100 100 100 100 100 100 100 100 98
5 5 0 5 5 5 5 5 6 5 74 100 100 100 99 98 100 97 98 100 100 100 100 91 56 58 95 95 55 46 100 100 100 100 100 100 100 100 100 100 100 100 100 99
5 5 0 5 63 65 39 36 5 5 37 100 100 100 100 87 100 99 100 100 100 100 100 100 100 22 5 5 6 5 63 100 100 100 100 100 100 67 77 99 100 100 100 97
5 3 2 13 67 100 100 70 35 16 6 95 100 100 100 100 98 47 85 100 100 100 100 100 100 60 5 5 5 0 12 15 94 78 64 61 88 100 100 100 100 100 100 100
5 3 0 1 28 99 98 8 65 34 90 17 100 100 48 100 100 100 90 65 100 100 100 100 100 48 14 5 5 0 5 5 96 87 51 96 100 100 100 100 100 100 100 100
5 5 2 0 3 7 78 37 5 16 97 94 99 100 14 100 67 100 100 100 100 87 54 94 100 52 28 10 33 33 30 53 14 93 100 100 100 100 100 100 100 100 100 100
5 5 1 2 0 4 5 27 13 4 0 95 98 100 100 99 70 42 73 59 99 96 9 64 100 9 5 52 15 50 91 77 72 97 100 100 99 100 100 100 85 84 87 100
5 31 2 0 1 1 5 7 3 0 1 0 91 31 100 5 26 72 100 70 7 13 5 0 1 4 5 5 1 4 6 5 8 17 58 100 100 94 54 22 78 100 98 75
100 77 5 4 0 0 1 0 0 0 0 2 5 44 11 5 5 9 100 82 64 5 5 5 2 0 0 0 3 5 5 5 5 4 9 55 72 9 90 100 100 100 100 92
6 14 4 2 5 4 2 0 0 0 1 1 5 90 47 5 6 61 11 12 100 98 53 5 5 4 0 0 0 3 4 4 1 0 4 73 98 100 100 100 94 100 98 100
75 56 6 5 3 6 0 0 0 0 0 0 65 97 80 68 47 5 5 2 9 56 25 2 0 0 0 0 0 0 3 2 3 5 5 23 67 71 89 100 100 99 100 100
52 77 36 50 5 5 5 0 0 2 5 0 0 0 5 4 5 5 5 0 4 5 2 2 0 0 0 0 1 4 5 5 9 6 5 6 34 87 97 100 100 100 100 100
99 100 11 5 5 7 6 0 0 0 5 0 0 0 5 0 0 0 5 5 4 1 0 0 1 5 5 5 14 62 59 23 6 10 68 93 100 100 94 100 100 100 99 54
100 86 39 5 20 43 98 1 0 0 1 0 0 4 5 2 0 0 0 0 0 0 3 2 4 5 5 5 7 19 22 67 90 100 97 96 89 100 100 100 89 83 43 77
100 100 100 66 48 84 23 5 1 0 0 5 4 5 17 38 4 2 3 0 3 3 0 5 4 5 5 5 5 30 75 74 42 57 95 94 80 22 7 37 46 66 80 78
100 100 100 63 5 5 66 5 3 0 5 5 3 5 67 62 71 13 5 5 5 5 5 5 5 5 5 5 5 5 38 59 28 71 6 5 10 11 18 37 49 90 51 56
100 100 100 82 39 96 31 44 8 10 10 2 5 0 6 22 18 7 5 5 5 5 5 5 5 5 5 50 51 28 77 71 9 9 53 13 5 5 10 9 55 28 12 14
100 100 100 36 99 98 36 40 48 94 5 5 5 5 5 5 5 5 5 5 9 16 28 21 5 5 38 72 96 99 68 46 23 5 15 27 64 48 21 7 5 5 5 5
100 100 100 99 100 23 86 100 100 84 97 10 77 100 90 19 53 68 53 66 82 76 74 81 99 98 100 100 100 40 5 7 5 33 36 26 7 24 6 5 18 50 5 5

GFSCGP_prec_cloud_048.txt.gz
Cloud_Cover
16 5 1 0 0 0 0 3 74 41 15 72 47 39 100 100 98 100 100 100 63 99 99 100 100 100 100 45 100 100 100 100 100 100 100 100 100 100 100 100 100 100 94 78
59 5 3 0 0 0 0 9 81 5 28 76 97 76 57 96 100 100 48 99 78 15 100 100 100 100 100 12 55 99 100 100 100 100 100 100 100 100 100 100 90 85 100 100
73 12 3 0 3 0 0 58 61 51 25 100 100 82 96 100 100 96 69 87 76 70 98 100 100 100 100 100 87 99 100 100 100 100 100 100 100 100 100 100 100 100 100 100
82 9 5 0 4 3 5 1 0 5 42 100 100 100 100 94 61 86 100 100 100 100 100 100 100 100 100 100 100 97 61 95 100 100 80 100 100 100 100 100 92 14 34 90
100 34 5 2 5 5 5 3 4 5 22 30 79 97 100 99 90 98 97 100 100 100 99 63 92 5 91 12 5 90 63 48 51 99 100 16 5 6 7 66 53 100 100 100
81 42 30 5 2 4 5 3 5 34 75 100 100 100 100 92 42 86 34 100 100 100 98 27 91 58 60 48 84 77 64 48 29 45 15 53 42 44 95 100 100 97 100 100
93 45 26 5 5 4 5 35 94 100 100 88 83 67 99 73 77 41 27 14 82 100 100 100 100 100 100 100 100 71 38 83 87 89 52 40 98 100 100 100 100 100 100 100
93 64 10 5 5 5 5 47 100 100 96 100 61 96 100 100 100 100 99 74 24 77 86 56 80 100 100 100 100 100 100 100 100 100 89 99 98 100 100 100 100 100 100 100
52 57 6 5 5 5 27 5 53 71 6 15 86 97 54 45 100 100 99 60 60 63 95 66 56 64 95 100 100 81 81 65 98 100 100 100 100 100 100 100 100 100 100 100
94 100 8 6 5 6 5 29 38 57 88 100 100 100 100 24 98 100 100 98 86 98 97 80 47 5 5 12 9 25 79 76 26 100 100 100 100 100 100 100 100 100 100 100
100 87 8 5 6 35 38 25 9 78 31 100 100 100 100 14 11 99 97 88 90 100 100 100 89 33 24 16 27 6 5 7 5 5 88 100 100 100 100 100 100 100 100 100
80 41 100 22 14 14 94 97 37 100 99 5 8 86 100 75 6 99 100 100 54 7 100 100 100 100 39 28 5 5 5 5 1 2 22 56 100 100 100 100 100 100 100 100
89 100 95 88 5 5 7 12 5 5 5 0 3 46 100 68 5 6 100 64 20 90 66 84 100 100 82 77 81 72 50 32 5 7 26 72 100 100 100 100 100 100 100 100
93 93 100 42 5 14 14 6 9 87 73 4 16 27 100 85 35 22 92 69 32 5 20 100 100 93 78 100 100 99 55 34 53 49 88 95 100 100 100 100 100 100 100 100
17 80 100 5 5 5 5 5 18 55 5 4 1 4 11 5 5 9 21 33 27 9 5 5 18 96 100 100 100 50 95 94 68 77 99 98 99 99 100 89 84 77 80 93
38 100 100 100 9 5 5 0 22 91 9 0 0 0 4 5 5 1 5 39 25 21 77 99 5 5 6 58 85 65 21 17 7 36 31 69 88 97 85 48 28 5 8 74
100 100 100 100 5 5 50 1 5 58 60 3 5 0 0 0 5 5 5 5 16 75 77 100 99 44 33 6 5 5 0 3 0 0 0 11 52 27 40 18 5 39 55 89
100 100 100 76 7 51 83 5 3 5 8 5 5 5 1 4 5 54 85 60 48 5 0 90 73 60 45 6 5 0 0 0 0 2 0 0 1 5 25 38 80 89 89 100
100 100 100 16 39 97 100 29 3 5 16 5 5 2 3 0 5 5 5 5 5 5 5 0 0 0 0 0 0 0 2 5 5 5 5 5 5 5 34 36 72 98 100 100
100 100 63 75 100 100 100 5 0 4 45 5 0 0 0 5 0 5 5 5 0 4 5 5 5 2 5 5 5 5 5 5 5 5 5 27 68 81 98 100 100 100 85 57
100 100 100 100 72 100 100 27 5 5 5 3 0 3 0 0 4 2 30 12 6 5 5 5 5 5 5 5 5 9 17 34 38 47 70 93 99 83 100 100 97 89 100 72
100 100 100 99 32 99 100 5 5 9 5 2 1 0 5 4 2 3 5 23 58 56 24 20 5 6 15 6 7 29 69 68 65 79 72 86 100 100 100 100 100 94 53 39
100 100 100 98 82 100 100 98 85 5 5 16 29 0 5 5 5 4 4 5 10 10 16 54 62 48 18 48 56 17 42 48 82 99 100 100 98 96 100 100 77 8 5 5
100 100 100 92 99 100 100 100 92 18 5 100 78 5 5 5 5 5 5 4 5 8 60 81 85 87 85 88 100 100 99 96 84 85 72 89 89 79 48 5 29 62 94 66
100 100 100 70 100 100 100 98 47 38 100 100 100 100 100 9 5 58 5 5 38 35 59 75 84 78 63 40 75 32 34 52 38 39 33 30 9 23 5 8 58 23 8 5
98 99 100 100 100 100 99 95 34 57 100 100 100 100 87 98 12 37 5 5 5 5 5 28 56 71 71 27 30 61 23 6 17 5 5 16 22 14 98 83 6 12 5 5

GFSCGP_prec_cloud_051.txt.gz
Cloud_Cover
5 22 91 90 87 3 2 81 100 52 99 52 74 100 67 100 59 66 100 99 52 97 85 100 100 100 100 100 100 100 100 100 100 100 100 100 100 100 100 100 100 100 100 100
53 100 98 5 8 2 0 77 94 22 34 12 100 88 100 100 49 62 100 100 100 63 100 100 100 100 98 100 27 85 100 100 100 100 100 100 100 100 100 100 100 100 100 100
100 100 100 48 5 4 1 58 72 80 63 6 79 83 100 100 72 100 55 65 94 78 99 100 100 100 100 96 60 41 100 100 100 100 100 100 100 100 100 100 100 100 100 100
100 100 100 100 5 5 54 14 60 99 96 100 98 84 100 100 50 80 76 62 49 100 98 100 100 100 100 100 100 100 100 96 94 100 100 100 100 100 100 100 100 100 100 100
57 100 90 100 17 5 29 89 5 44 95 100 100 95 97 99 99 28 5 6 60 93 100 84 100 100 100 100 100 100 100 100 85 98 97 97 100 100 100 100 100 99 98 95
100 100 23 100 16 5 5 5 4 47 80 100 97 32 100 80 100 35 97 21 53 100 90 98 97 100 100 100 100 99 6 5 63 55 41 7 28 11 5 43 86 71 100 97
88 100 44 42 11 5 5 7 76 100 99 31 99 84 100 100 95 25 35 72 77 100 100 100 37 56 100 80 33 20 15 84 61 75 38 55 96 40 27 11 64 96 82 99
100 100 90 16 46 92 5 72 35 45 51 86 94 4 37 100 99 97 22 9 55 11 42 84 45 68 63 15 36 5 30 8 58 100 100 100 92 92 98 100 100 100 100 100
100 24 9 12 83 100 100 68 78 100 14 32 72 26 7 87 20 5 5 6 66 100 100 96 64 34 13 59 98 80 63 94 49 100 98 100 100 96 100 100 100 100 100 100
100 100 96 88 100 100 54 87 89 56 60 35 55 97 100 46 70 26 25 5 60 5 23 71 96 18 7 13 25 34 25 89 96 97 39 67 83 68 100 100 100 100 100 100
100 84 66 5 100 94 36 62 100 100 89 97 98 100 100 86 5 5 5 9 98 19 5 56 94 98 57 6 21 57 48 31 57 83 100 100 99 95 100 90 95 100 100 100
100 100 82 94 98 96 100 95 98 100 98 84 21 22 98 26 5 81 98 100 33 12 5 5 6 24 100 97 91 33 35 57 46 27 64 100 97 100 100 100 100 100 100 100
100 100 74 100 100 100 100 100 98 96 99 97 99 4 100 54 4 5 42 97 100 68 6 5 5 5 19 95 100 100 100 100 98 100 100 100 100 100 100 100 100 100 100 100
100 100 100 40 73 81 100 100 70 68 94 58 35 79 99 83 7 42 77 12 100 100 9 5 5 4 6 84 100 100 75 98 99 93 100 94 100 100 100 100 100 100 100 100
76 100 100 100 100 100 100 100 71 100 100 92 36 96 100 98 100 92 96 73 14 100 96 13 4 2 0 0 7 100 100 100 100 82 65 95 100 100 100 100 100 100 100 100
100 100 100 100 100 50 100 100 58 94 99 96 100 98 100 90 0 5 4 2 1 7 82 5 15 22 100 29 10 90 60 83 92 83 69 60 55 83 80 78 78 90 73 85
100 100 100 70 100 46 92 100 91 5 5 22 57 64 49 100 24 4 0 3 0 0 4 5 5 4 0 16 44 7 41 38 52 5 3 0 1 1 2 5 5 45 52 59
100 99 100 100 100 18 100 100 55 5 5 11 81 97 12 18 5 1 2 2 3 5 5 5 4 0 0 5 6 5 7 13 8 5 5 5 5 15 23 40 62 75 87 92
100 100 100 96 96 100 100 100 94 5 5 6 98 60 5 5 0 0 0 0 0 0 0 5 5 0 5 5 5 3 5 7 5 5 20 60 68 75 69 86 98 100 100 95
100 100 100 100 99 57 100 100 98 2 20 1 93 16 65 5 5 5 0 0 0 0 3 5 5 5 5 4 5 5 5 5 5 5 5 5 26 49 100 80 71 100 100 100
100 100 93 100 100 86 100 100 100 7 100 99 28 13 67 64 5 5 0 1 4 5 0 3 13 13 19 5 5 5 5 5 11 9 19 40 87 89 51 99 88 44 65 96
100 99 81 100 92 68 100 100 100 85 12 12 0 21 39 6 4 5 4 5 3 5 5 5 5 7 54 67 72 68 63 62 68 74 79 99 100 99 97 81 97 100 54 58
100 100 100 100 100 100 100 100 100 99 10 5 5 43 95 53 42 59 7 5 5 5 5 5 5 4 5 10 45 85 91 99 100 99 29 68 60 76 71 69 74 46 58 27
100 100 88 100 100 100 100 100 100 100 100 94 5 84 100 65 100 100 100 100 16 5 5 5 6 6 8 39 52 71 80 71 60 11 41 15 11 59 13 56 74 68 8 10
100 99 28 92 100 100 100 100 100 100 95 100 42 44 99 57 74 100 100 100 100 92 16 5 21 10 10 16 69 100 65 41 97 91 62 16 5 10 39 49 5 5 7 16
100 100 100 100 100 100 100 100 100 100 100 77 69 5 5 6 58 100 100 100 100 100 100 22 35 9 5 10 100 100 100 86 6 5 5 28 97 93 55 42 5 6 5 5

GFSCGP_prec_cloud_054.txt.gz
Cloud_Cover
5 5 5 5 98 59 5 42 4 100 5 4 52 100 100 100 56 27 40 70 100 84 99 90 100 100 98 100 100 100 100 100 100 100 100 100 100 100 100 100 100 100 100 100
5 6 90 100 99 100 60 4 1 100 100 3 3 25 5 70 100 72 36 100 100 98 35 64 100 100 100 100 98 93 100 100 100 100 100 100 100 100 100 100 100 100 100 100
62 62 93 100 100 100 100 5 7 66 76 18 0 50 28 13 100 44 87 91 100 94 76 100 100 100 100 100 100 100 73 100 100 100 100 100 100 100 100 100 100 100 100 100
30 77 88 33 100 99 57 5 41 6 52 8 48 3 10 28 92 90 100 92 68 100 40 100 100 100 100 65 90 100 90 13 100 100 100 100 100 100 100 100 100 100 100 100
100 56 81 31 100 100 18 54 5 24 5 21 100 8 79 44 64 5 68 4 5 5 6 47 100 100 100 100 100 47 4 5 18 30 26 100 53 72 99 100 100 100 100 100
100 100 100 72 100 100 56 18 5 7 5 5 2 97 4 98 59 95 100 33 52 5 64 100 84 90 98 30 100 100 100 100 100 100 100 63 100 100 100 100 100 100 100 100
100 100 100 70 97 100 100 36 29 57 10 5 66 88 10 66 76 100 52 31 5 22 19 82 100 100 100 91 100 96 100 100 100 30 78 99 98 94 98 100 71 82 53 94
100 100 97 100 98 60 100 9 100 90 100 50 15 27 100 21 90 100 96 23 38 56 14 100 94 82 17 58 82 95 55 36 28 22 38 83 100 93 93 100 100 97 89 78
100 100 100 100 100 24 99 76 100 100 14 73 48 9 84 46 68 13 63 7 24 8 83 95 66 21 61 100 100 33 66 5 6 10 98 50 100 100 100 100 100 100 83 100
100 100 86 86 86 100 100 98 100 100 94 64 54 5 98 73 8 0 2 5 20 43 33 16 75 7 76 56 44 13 5 5 56 24 31 43 75 98 94 100 100 100 100 85
100 100 100 100 76 100 46 19 95 100 100 100 8 34 86 100 99 6 1 1 4 4 9 44 39 5 41 90 94 85 5 5 88 93 96 100 99 92 97 64 99 100 100 64
100 100 100 100 91 94 99 96 32 100 100 100 6 52 98 70 100 33 5 0 0 0 0 5 13 65 98 31 100 90 10 63 46 100 100 100 100 67 91 100 100 100 100 100
100 100 100 92 100 100 100 100 75 100 95 100 52 39 100 5 6 30 0 0 1 5 1 6 5 5 10 5 7 51 88 100 47 94 100 100 100 100 88 100 100 100 100 100
100 100 100 14 99 100 100 100 83 89 100 100 90 29 5 12 5 30 45 37 7 2 6 5 5 5 4 0 1 0 0 3 52 39 46 41 94 77 100 100 100 100 100 100
100 100 100 88 100 100 100 100 100 100 100 100 100 85 5 56 93 48 72 56 100 6 35 11 3 40 95 8 0 21 4 90 80 29 58 64 51 100 100 100 100 100 100 100
100 100 100 95 100 100 100 100 100 100 100 98 100 37 5 95 100 73 79 62 26 5 5 5 0 0 13 10 11 0 5 5 5 14 64 99 100 100 100 100 100 100 100 90
100 100 100 100 100 100 70 100 100 100 100 100 100 100 97 71 98 96 36 5 5 5 0 0 2 18 62 41 25 100 66 82 17 5 11 66 84 85 73 81 64 8 18 34
100 100 100 100 100 40 78 100 100 100 100 40 100 74 5 94 57 58 96 10 3 0 0 0 1 0 18 16 13 40 62 76 16 1 4 5 5 5 5 13 48 12 14 22
100 100 100 86 97 64 11 100 100 100 100 74 100 80 45 36 87 6 5 5 5 0 0 0 0 0 0 0 2 1 4 0 4 5 3 5 5 5 8 83 100 100 100 62
100 100 100 100 94 43 99 100 100 100 28 100 100 100 7 82 13 5 5 4 4 1 0 0 0 0 0 0 0 2 45 58 69 49 12 5 5 15 36 90 96 84 21 71
100 100 75 100 89 80 100 100 100 100 98 100 61 77 100 88 5 5 5 5 5 5 5 2 0 5 4 0 5 5 4 1 4 5 10 16 8 43 79 64 49 36 55 36
96 100 100 97 88 35 100 100 100 100 100 96 23 98 100 95 26 5 5 5 12 52 57 90 62 5 5 5 5 5 5 5 5 4 6 12 84 74 62 54 40 15 14 23
100 78 100 100 36 17 99 100 100 100 100 100 94 100 100 100 100 81 34 5 51 63 73 100 100 90 100 100 93 5 5 5 11 10 100 92 36 42 77 71 88 99 73 34
100 100 100 100 80 91 100 100 100 100 50 100 100 100 90 29 100 71 5 5 5 24 33 95 100 79 100 100 90 42 5 6 33 54 74 100 96 67 99 100 80 100 51 16
100 100 100 99 92 100 100 100 100 100 100 96 100 100 100 84 100 16 4 5 5 42 13 44 100 100 100 100 100 88 95 41 56 97 75 82 96 94 68 63 49 100 98 99
100 100 83 97 100 100 100 100 100 100 100 100 100 100 100 100 100 84 5 5 5 8 58 40 100 100 100 100 100 100 79 86 98 100 100 100 94 92 96 100 89 100 100 100

GFSCGP_prec_cloud_057.txt.gz
Cloud_Cover
100 14 86 5 5 2 5 100 57 44 95 100 92 88 2 100 47 96 100 99 8 4 68 90 100 8 96 83 100 100 92 100 100 100 100 100 100 100 100 100 100 100 100 100
85 94 58 5 5 13 98 100 44 55 25 78 46 17 8 3 17 46 60 100 73 6 90 98 100 99 100 100 94 99 100 100 99 85 100 100 100 100 100 100 100 100 100 100
100 98 96 5 5 5 30 100 100 14 59 96 8 2 0 14 34 96 100 58 91 96 15 34 68 100 100 100 36 92 48 99 72 53 100 100 100 100 100 100 100 100 100 100
100 100 100 71 5 5 81 100 100 44 5 3 26 0 0 5 5 99 100 39 5 96 27 4 8 100 100 100 99 77 100 100 100 100 100 100 100 100 100 100 100 100 100 100
100 100 100 100 70 5 100 22 69 64 5 5 1 0 77 58 5 5 3 5 5 1 5 12 16 100 100 100 10 62 97 100 99 95 100 100 100 100 100 100 100 100 100 100
100 100 100 100 98 100 98 93 9 48 13 100 5 4 0 67 91 12 6 8 3 38 1 5 15 72 100 100 100 8 5 27 26 5 88 100 100 100 100 100 100 100 100 100
100 100 100 100 100 90 96 100 53 61 23 100 100 4 0 78 14 92 5 19 6 5 5 5 5 67 88 100 98 100 85 100 100 100 95 53 99 100 98 100 100 100 100 100
100 100 100 100 100 100 100 100 86 55 5 100 100 4 7 5 43 4 36 26 100 7 5 5 5 5 6 21 95 97 38 100 100 100 100 98 90 38 97 60 99 100 100 100
100 100 100 100 100 100 100 100 38 9 80 43 91 100 100 5 7 5 2 0 0 0 0 4 5 5 80 22 5 5 27 99 64 17 17 49 54 20 99 100 99 100 100 100
27 98 100 100 100 100 100 100 72 91 98 70 68 86 100 5 10 60 13 5 0 0 0 0 1 7 18 27 5 5 40 40 62 5 21 100 98 98 87 72 66 92 100 100
7 58 100 100 100 100 100 100 97 100 67 75 79 70 100 47 5 100 68 8 0 11 0 0 0 1 16 97 10 1 4 10 54 40 64 100 100 100 100 100 93 55 85 100
6 76 82 100 100 100 100 100 100 70 96 42 99 100 100 85 67 100 94 39 82 3 0 0 0 0 0 22 100 96 3 97 100 100 100 100 100 100 100 100 100 100 100 100
49 52 97 98 100 100 100 100 100 100 91 62 99 100 14 100 90 85 53 61 3 0 0 0 0 1 0 0 0 31 71 100 100 100 100 100 100 100 100 100 100 100 100 100
100 73 30 63 96 100 100 100 100 100 96 99 92 100 100 100 100 100 97 89 21 0 0 0 0 0 0 0 0 0 43 100 100 100 100 100 100 100 100 100 100 100 100 100
100 83 5 77 100 100 100 100 100 35 91 66 100 100 100 91 100 100 97 27 89 11 5 0 0 2 5 3 0 0 5 4 28 100 90 100 100 100 100 88 100 100 100 100
100 100 100 32 100 100 100 100 83 75 97 100 100 100 100 100 100 100 75 33 6 29 5 0 0 0 1 0 0 0 5 44 52 79 97 95 100 100 74 96 100 100 100 100
100 100 100 8 100 100 100 100 100 100 100 100 93 100 100 93 100 100 100 67 7 5 6 11 0 0 0 0 4 0 44 4 0 22 50 71 73 83 100 100 100 100 100 100
99 92 100 97 100 97 100 100 100 100 100 100 100 100 100 100 100 99 100 46 5 6 27 0 0 0 0 1 0 0 2 0 1 33 51 100 93 64 100 66 17 8 2 3
100 100 97 96 100 100 100 100 100 100 100 100 100 100 100 100 99 53 100 76 46 5 5 0 0 0 0 1 1 2 0 0 0 13 0 4 0 3 5 5 21 5 5 47
100 100 75 52 20 77 100 100 100 100 100 100 100 100 100 99 28 50 99 63 67 5 2 0 5 0 0 1 5 0 0 0 0 5 4 20 5 24 5 11 80 100 27 33
100 100 100 100 100 11 82 100 100 100 100 100 100 100 85 100 66 99 96 100 67 19 1 0 1 5 5 3 5 1 2 1 0 0 5 4 5 5 4 38 75 10 13 16
100 100 100 100 100 81 100 100 100 100 100 100 100 82 100 100 73 100 64 57 100 100 79 5 5 5 5 5 5 5 13 10 5 4 5 5 5 4 5 5 5 5 5 5
100 100 100 100 58 28 100 82 100 100 100 100 82 10 26 7 34 100 100 100 100 12 99 27 5 5 5 5 5 5 28 5 5 29 26 6 5 5 41 8 67 97 85 98
100 100 100 81 99 100 100 100 100 100 100 100 100 84 100 100 100 100 99 100 52 5 100 99 27 5 5 5 20 8 8 5 35 100 100 100 10 5 29 14 86 96 84 98
100 100 100 44 100 100 100 100 100 100 100 100 100 97 100 100 100 100 100 100 100 100 62 100 100 5 5 6 44 23 51 13 26 100 100 92 44 13 75 98 97 80 93 81
100 100 100 85 100 100 100 99 100 100 100 100 100 99 94 100 100 100 100 100 100 99 100 100 94 22 6 5 36 34 49 77 93 100 100 51 90 100 100 100 99 100 100 100

GFSCGP_prec_cloud_063.txt.gz
Cloud_Cover
100 100 100 100 100 91 5 22 100 21 0 0 0 0 0 2 0 0 10 50 37 15 61 4 78 86 100 100 100 100 100 100 91 100 100 100 100 100 100 100 100 100 100 100
100 100 84 98 100 98 86 70 100 92 3 13 32 12 5 0 2 0 0 0 4 7 39 57 21 89 100 99 100 100 100 86 73 86 100 99 100 100 100 100 100 100 100 100
100 100 95 100 81 100 99 51 100 100 51 5 16 5 5 5 0 0 0 0 4 43 29 63 73 75 98 77 97 100 98 75 78 99 58 99 100 100 100 100 100 100 100 100
34 100 100 100 100 31 97 60 97 62 100 38 8 68 5 5 2 0 0 0 18 10 82 22 28 86 100 39 100 100 80 100 72 98 97 100 100 100 100 100 100 100 100 100
98 89 100 100 100 100 100 41 84 100 22 67 15 73 10 5 4 0 4 0 0 0 0 0 0 2 24 18 68 82 47 31 52 100 59 100 96 92 100 100 100 100 100 100
81 100 24 100 100 100 100 100 100 100 57 5 5 68 12 5 5 1 2 3 0 0 0 0 0 4 0 0 2 22 61 97 10 5 100 100 100 100 100 98 100 100 100 100
100 100 100 95 39 33 100 100 100 99 50 19 11 10 52 16 5 24 1 5 1 5 5 0 0 0 0 0 0 16 23 5 5 0 4 78 100 100 100 100 100 62 25 83
96 100 100 93 100 100 100 61 23 95 5 5 84 55 50 61 7 5 26 0 5 1 5 3 0 0 0 1 5 50 74 88 97 82 5 10 39 16 94 99 100 86 92 100
99 100 100 100 100 100 39 5 45 6 29 63 92 29 5 9 23 18 31 6 5 0 0 0 0 0 0 0 0 0 25 70 93 95 99 100 100 100 100 100 100 100 100 85
100 82 100 100 72 11 5 87 74 36 73 64 97 74 46 6 6 31 22 66 5 0 0 8 10 0 1 1 0 2 56 100 68 43 25 62 29 100 100 100 100 100 98 100
81 93 97 99 7 32 66 62 81 100 93 86 100 100 100 58 5 23 37 62 26 64 5 94 96 7 95 19 1 5 4 68 100 100 100 100 100 100 100 94 97 100 98 99
100 100 100 100 100 100 100 100 100 100 100 97 100 100 100 97 8 28 22 53 82 8 100 34 3 94 24 1 0 0 0 0 45 100 100 100 100 100 100 100 100 100 100 99
100 100 100 100 100 100 100 100 100 100 100 100 96 100 100 18 5 5 32 9 72 96 99 38 41 91 4 0 0 0 0 0 20 100 100 100 100 100 100 100 100 100 100 100
100 100 100 100 100 100 100 100 100 100 100 100 100 100 100 100 5 18 5 5 45 5 10 100 34 5 26 0 0 0 0 0 0 68 100 100 100 100 100 100 100 100 100 100
100 100 100 100 100 100 100 100 100 100 100 100 100 100 100 85 99 95 64 48 6 12 5 12 90 66 4 0 0 0 0 0 0 0 58 100 88 77 100 100 100 100 100 100
100 100 100 100 100 100 100 100 100 100 100 100 100 100 100 100 100 100 54 78 5 88 5 5 5 6 5 12 64 0 2 3 0 0 0 76 100 100 100 100 100 100 100 100
4 100 100 16 100 100 96 100 100 100 100 92 19 96 100 100 99 100 80 47 21 47 53 5 9 5 5 5 52 13 4 4 0 0 1 44 100 100 100 100 100 100 100 100
23 94 100 100 100 100 52 67 100 100 88 62 88 100 100 100 100 100 100 100 90 100 100 7 83 26 14 2 9 33 33 21 10 27 58 92 100 100 100 100 100 100 100 100
1 12 100 100 90 14 7 100 100 100 100 99 60 90 100 100 100 100 100 100 86 53 94 7 11 5 5 16 82 99 100 100 100 100 100 100 100 100 100 100 100 100 100 100
59 100 79 100 100 62 4 100 100 100 92 100 100 35 95 64 100 100 100 100 99 100 100 100 100 68 37 52 48 100 100 100 100 100 100 100 100 100 100 100 100 100 100 100
83 100 100 100 98 42 70 100 100 100 74 100 75 6 5 22 100 100 100 100 100 100 100 99 100 100 100 99 28 95 100 100 100 100 100 100 100 100 100 100 100 100 100 100
39 87 76 74 86 100 100 100 100 93 99 100 100 55 23 64 25 99 100 100 100 100 100 100 100 100 100 100 100 100 89 97 100 100 100 100 100 100 100 100 100 100 93 100
4 0 5 2 90 100 100 100 100 100 100 98 100 68 16 85 25 90 100 100 100 100 100 100 100 100 100 100 100 100 99 22 47 91 100 100 100 100 100 89 28 40 54 100
5 4 5 1 0 3 100 100 100 100 100 97 100 72 84 59 87 95 100 100 100 100 100 100 100 100 100 100 100 100 74 54 72 100 100 100 100 100 90 100 100 100 100 95
2 6 0 0 76 100 100 100 100 100 100 100 100 100 100 100 100 100 100 100 100 100 100 100 100 100 100 83 99 100 100 100 100 100 100 100 100 100 100 100 100 100 100 94
100 44 15 0 79 100 100 100 100 100 100 100 100 100 99 100 100 100 77 88 100 100 100 100 100 100 100 100 100 100 100 100 100 100 100 100 100 100 100 100 100 100 100 100

GFSCGP_prec_cloud_066.txt.gz
Cloud_Cover
96 100 100 100 50 100 100 100 91 5 92 90 9 4 4 0 0 0 0 8 94 40 0 3 98 100 76 67 99 100 100 100 100 100 100 100 100 100 100 100 100 100 100 100
5 94 100 5 11 100 100 100 53 5 86 84 8 2 0 0 0 0 0 0 0 13 69 77 82 100 99 100 87 100 100 100 100 100 100 100 100 100 100 100 100 100 100 100
38 100 100 82 11 97 100 100 44 10 6 76 100 59 0 1 5 1 0 0 0 0 29 100 91 100 100 99 76 89 100 100 100 100 100 100 100 100 100 100 100 100 100 100
53 94 100 93 75 100 100 54 93 96 44 29 100 99 5 5 5 5 3 0 0 0 2 42 100 100 100 100 97 91 96 93 52 100 98 100 100 100 100 100 100 100 100 100
81 95 95 55 90 88 100 100 100 100 70 100 100 66 5 5 2 5 5 0 0 0 0 14 43 57 100 100 80 87 38 46 83 100 84 80 100 100 100 100 100 100 100 100
100 100 76 100 91 92 100 100 100 83 57 100 100 72 4 100 5 5 1 0 0 0 0 0 0 1 67 63 55 100 100 67 54 97 100 70 70 100 99 100 94 100 100 100
100 100 100 100 100 5 30 100 29 9 100 100 100 74 84 74 7 5 5 3 0 0 0 0 0 1 33 75 60 100 100 100 67 89 50 91 44 77 100 100 92 73 92 100
86 100 100 100 100 100 98 81 6 78 91 40 9 92 100 76 92 5 5 1 4 0 0 0 0 2 0 2 38 82 100 82 30 6 5 0 15 69 100 100 100 100 100 100
100 100 100 100 100 100 100 96 88 7 5 6 78 61 100 87 100 48 32 6 4 0 0 0 0 2 1 0 0 0 12 38 25 76 22 35 16 11 5 28 88 54 48 59
100 100 100 100 100 100 78 99 99 25 15 54 100 45 100 100 100 100 89 9 4 4 3 0 0 0 5 5 0 0 0 47 31 6 59 99 93 96 100 100 100 100 100 100
100 100 100 100 100 100 100 100 82 22 12 46 31 100 100 100 100 100 100 79 6 5 4 4 2 0 5 31 6 6 3 3 93 100 100 88 80 22 81 100 100 100 99 95
100 70 100 100 100 100 100 92 85 99 5 5 59 100 100 100 100 100 100 100 18 40 5 5 2 3 0 2 4 0 0 0 5 97 100 100 92 100 100 100 100 100 100 100
100 100 80 100 100 100 100 92 92 19 4 53 91 100 100 100 100 100 100 100 100 100 55 13 5 98 34 2 5 5 0 0 0 0 100 100 100 100 100 100 100 92 100 100
100 100 100 100 100 100 90 88 75 100 8 83 48 100 100 100 100 93 100 100 100 100 100 75 72 100 19 41 2 2 5 2 0 0 15 100 100 74 100 71 97 100 100 92
100 100 100 100 100 100 100 100 100 100 100 100 100 100 100 100 100 100 100 100 100 82 100 100 89 100 100 75 37 5 1 5 5 1 0 1 78 96 47 28 9 29 25 88
100 100 100 100 100 100 100 100 98 36 100 100 100 100 100 100 100 100 100 100 100 100 88 100 100 74 100 100 51 5 4 2 0 5 5 0 3 17 100 100 100 99 99 96
95 100 100 100 100 100 100 100 100 100 87 100 100 100 100 100 100 100 100 100 71 98 99 100 100 100 100 96 100 8 5 4 5 0 3 5 13 46 80 84 100 100 100 100
1 98 100 100 100 100 100 100 100 100 100 100 100 100 100 99 100 98 78 96 94 96 96 100 100 100 100 99 85 39 67 5 21 0 0 1 6 61 100 100 100 100 100 100
0 94 100 80 44 70 100 100 100 100 100 100 98 100 100 70 91 100 98 100 100 100 100 100 100 100 100 100 100 11 46 71 12 3 6 27 49 97 100 100 100 100 100 100
21 60 47 91 100 32 87 100 100 100 31 100 100 74 57 85 5 88 100 100 99 98 74 100 100 100 100 100 100 100 84 39 82 99 97 100 100 100 100 100 100 100 100 100
99 97 82 61 85 10 0 68 100 100 13 5 50 13 30 92 100 98 100 92 31 96 100 100 100 100 100 100 100 100 100 100 98 100 100 100 100 100 100 100 100 100 100 100
18 50 98 92 100 58 0 4 100 100 97 40 32 10 62 38 93 100 100 100 92 100 93 100 100 100 100 100 100 100 100 100 100 100 100 100 100 100 100 100 100 100 100 100
4 2 6 2 9 0 0 0 3 99 83 96 74 100 96 29 79 100 100 100 100 100 100 100 100 100 100 100 100 100 100 100 100 100 100 100 100 100 100 100 100 100 100 100
4 3 5 36 0 0 0 0 100 95 100 98 33 19 100 52 78 100 100 100 100 100 100 100 100 100 100 100 100 100 100 100 100 100 100 100 100 100 100 100 100 100 100 100
3 5 1 0 0 0 0 0 17 20 100 100 100 96 100 100 100 46 94 100 100 100 100 98 100 100 100 100 100 100 100 100 100 100 100 100 100 100 100 100 100 100 100 100
17 34 28 0 58 98 57 0 0 0 41 92 100 100 100 100 100 100 100 99 100 100 100 100 100 100 100 100 100 100 100 100 100 100 100 100 100 100 100 100 100 100 100 100

GFSCGP_prec_cloud_069.txt.gz
Cloud_Cover
100 12 80 100 24 20 91 100 100 74 12 5 94 20 5 5 0 5 0 0 0 6 25 17 40 44 100 100 100 100 100 100 100 100 100 100 100 100 100 100 100 100 100 100
89 99 100 85 5 5 100 100 100 14 7 99 88 100 99 63 0 3 0 0 0 1 43 56 42 29 64 100 100 99 100 100 100 100 100 100 100 100 100 100 100 100 100 100
100 100 76 60 5 5 100 100 15 53 8 49 96 90 100 32 0 3 0 0 0 0 25 97 40 58 28 92 100 100 90 99 100 100 100 100 100 100 100 100 100 100 100 100
100 100 100 96 8 5 96 96 0 62 100 94 35 74 99 62 0 5 0 0 0 0 0 16 43 32 35 51 100 100 100 97 100 100 100 100 100 100 100 100 100 100 100 100
100 100 100 91 99 27 41 93 6 100 100 100 89 90 100 100 0 5 5 4 5 0 0 0 10 0 0 48 100 63 72 64 62 67 99 95 100 100 100 100 100 100 100 100
100 100 100 100 94 52 68 98 18 100 100 100 100 39 100 39 19 5 1 5 5 12 0 0 0 20 9 39 100 69 30 32 42 40 100 28 52 89 100 100 100 100 100 100
100 100 100 100 100 79 5 82 100 35 48 100 71 13 100 94 95 0 4 5 2 58 1 0 0 19 37 41 100 100 39 50 60 53 100 100 100 100 100 100 100 100 100 100
100 100 100 100 100 100 100 100 18 5 58 100 9 30 100 100 9 3 5 56 5 5 2 0 0 0 10 35 91 52 85 99 99 48 48 100 100 81 88 65 100 100 100 100
100 100 100 100 100 100 100 100 100 66 28 74 73 100 100 100 33 77 5 57 87 40 1 1 3 5 0 0 1 35 72 100 100 53 33 92 100 100 99 100 100 100 100 100
100 100 100 100 100 100 100 100 100 100 99 25 98 100 100 100 95 4 95 93 100 100 14 5 4 4 2 3 0 0 5 71 48 22 32 18 59 30 29 5 5 10 65 5
100 100 100 100 100 100 100 100 87 42 73 16 92 96 100 100 100 74 100 78 100 100 91 41 37 2 5 5 4 0 0 0 3 84 77 85 78 100 100 70 72 97 86 100
100 100 100 100 100 100 100 98 81 32 99 8 91 100 100 100 100 80 41 100 100 98 6 100 90 79 5 4 95 22 0 3 0 5 40 98 34 87 84 98 100 100 96 93
100 100 100 100 100 100 100 100 95 70 29 37 76 100 100 100 100 100 66 16 100 63 40 100 95 90 64 5 5 78 1 0 4 0 0 28 100 100 98 98 100 98 58 5
100 100 100 100 100 100 100 100 100 52 54 10 5 81 100 100 100 100 79 94 54 100 100 100 100 100 89 5 5 5 3 5 4 1 4 0 1 49 91 100 94 100 27 44
100 100 100 100 100 100 81 33 86 100 27 5 81 5 34 100 100 100 100 100 19 100 100 100 100 33 33 11 11 5 5 5 12 25 5 5 0 0 6 54 45 37 60 10
100 100 100 100 100 100 100 100 100 100 37 9 5 80 14 69 100 100 100 100 96 100 100 100 100 100 93 100 98 26 69 6 9 26 5 5 5 5 3 1 71 90 14 11
100 100 100 100 100 100 100 100 100 100 100 100 100 100 100 100 96 100 100 100 100 100 100 100 100 100 100 100 98 95 100 62 9 5 68 4 5 6 7 6 1 0 12 74
23 76 94 83 89 53 100 100 100 100 100 100 100 100 100 100 100 100 100 100 100 100 100 100 100 100 100 100 100 99 55 33 60 30 86 96 26 9 14 38 59 60 100 100
0 3 30 48 73 54 96 100 100 100 99 86 10 100 100 6 21 100 100 100 100 100 100 100 100 98 100 100 100 100 100 99 98 78 32 32 17 100 44 82 100 100 100 100
6 6 5 100 28 17 84 100 98 100 100 100 100 28 5 32 100 100 100 100 100 100 100 100 100 100 100 100 100 100 100 100 100 100 99 77 92 50 100 100 100 100 100 100
100 100 52 90 68 4 5 4 8 51 77 10 93 100 98 5 16 70 100 100 100 100 100 100 87 100 100 100 100 100 100 100 100 100 99 98 100 100 100 100 100 100 100 100
32 58 91 84 73 47 0 0 2 0 2 1 1 4 7 12 32 100 39 100 99 97 100 100 100 100 100 100 100 100 100 100 100 100 100 100 100 100 100 100 100 100 100 100
5 2 6 7 2 0 0 10 1 0 0 0 0 5 5 50 61 92 100 100 92 25 51 100 100 100 100 100 100 100 100 100 100 100 100 100 100 100 100 100 100 100 100 100
2 0 0 0 0 0 0 0 0 0 0 0 0 5 20 5 100 11 26 40 92 100 100 90 100 100 100 100 100 100 100 100 100 100 100 100 100 100 100 100 100 100 100 100
5 0 0 0 0 0 0 0 43 0 0 0 0 0 0 6 94 96 100 67 100 100 100 100 100 100 100 100 100 100 100 100 100 100 100 100 100 100 100 100 100 100 100 100
5 5 0 0 46 98 85 3 88 5 5 0 0 3 3 5 90 98 98 100 100 100 100 100 100 100 100 100 100 100 100 100 100 100 100 100 100 100 100 100 100 100 100 100

GFSCGP_prec_cloud_075.txt.gz
Cloud_Cover
100 98 6 5 100 100 100 75 100 100 77 69 6 46 100 38 5 0 0 0 1 0 0 0 0 0 0 0 23 100 100 100 100 100 100 100 100 100 100 100 100 100 100 100
100 24 67 100 100 100 52 100 100 83 74 9 81 100 100 16 5 75 10 5 5 0 0 0 0 0 0 0 33 72 100 96 100 100 100 100 100 100 100 100 100 100 100 100
100 89 100 100 100 100 82 72 100 71 98 85 100 100 100 97 2 100 98 70 3 4 0 0 0 0 0 0 6 51 76 93 100 100 100 100 100 100 100 100 100 100 100 100
100 100 100 100 100 100 100 100 100 88 98 96 99 100 100 100 87 5 11 80 0 0 0 0 0 0 0 0 0 22 48 90 97 100 100 100 100 100 100 100 100 100 100 100
100 100 100 100 100 100 95 100 99 100 68 61 59 100 100 100 51 5 5 5 0 0 0 0 0 0 0 0 0 3 100 96 98 100 100 100 100 100 100 100 100 100 100 100
100 100 100 100 100 100 100 100 93 100 72 45 100 100 100 100 100 31 5 99 17 5 0 0 0 0 0 0 0 0 53 68 100 100 96 100 100 100 100 100 100 100 100 100
100 100 100 100 100 100 100 100 100 100 100 99 100 100 100 97 88 100 28 5 1 6 0 0 0 0 0 0 0 0 0 2 97 73 99 84 100 97 95 100 100 100 100 100
100 100 100 100 100 100 100 100 100 100 100 100 99 100 100 100 100 100 5 69 4 24 0 0 0 3 2 0 0 0 0 0 10 100 73 90 100 100 92 85 46 72 66 99
100 100 100 100 100 100 100 100 100 100 100 100 96 100 100 100 100 100 98 98 64 5 1 0 0 33 95 0 6 3 0 0 0 7 37 60 93 100 80 98 92 41 69 100
100 100 100 100 100 100 100 100 100 100 100 100 100 100 100 100 100 100 100 100 100 100 49 4 0 0 100 100 100 27 1 0 0 0 0 2 2 25 14 79 47 98 77 60
100 100 100 100 100 100 100 100 100 100 100 100 100 100 100 99 100 100 100 100 100 45 23 5 4 0 5 72 100 100 83 1 0 0 0 0 0 5 29 3 34 44 100 100
100 100 100 100 100 100 100 100 100 100 100 100 100 100 100 100 100 100 100 100 100 100 43 72 99 5 5 0 5 47 100 100 0 0 0 0 0 0 0 2 22 3 0 30
100 100 100 100 100 100 100 100 100 100 100 100 100 100 100 100 100 100 100 100 100 100 100 96 87 8 5 4 4 39 100 100 2 5 1 4 1 3 0 0 0 0 18 3
100 100 100 100 100 100 100 100 100 100 100 100 100 100 100 100 100 100 100 100 100 100 100 98 95 5 5 5 5 69 85 100 96 27 5 23 0 1 5 5 3 0 2 11
100 100 100 100 100 100 100 100 100 100 100 100 100 100 100 100 100 100 100 100 100 100 100 95 19 57 90 47 5 5 11 15 18 44 19 15 5 5 0 5 7 41 3 0
100 100 100 100 100 100 100 100 100 100 100 100 100 100 100 100 98 100 100 100 100 100 100 100 100 20 92 95 86 36 5 6 7 100 100 85 5 5 5 4 5 8 30 5
100 100 100 100 100 100 100 100 100 100 100 100 100 100 97 98 91 100 100 100 100 100 100 100 100 100 100 80 93 100 100 39 89 100 100 100 100 92 23 4 5 38 7 5
100 100 100 100 100 100 100 100 100 100 100 100 100 100 78 37 59 100 100 100 100 100 100 100 92 100 100 95 74 99 100 100 43 100 100 100 100 68 50 7 5 5 5 12
100 100 100 100 100 100 76 100 100 100 100 100 100 100 100 98 100 100 74 100 100 100 100 100 100 100 100 100 100 61 97 100 28 100 100 100 100 100 69 34 91 58 24 18
100 100 100 100 100 100 100 100 100 100 81 100 100 100 100 100 100 100 100 100 100 75 100 100 100 100 100 100 100 100 100 100 100 100 100 100 100 100 100 100 100 61 100 100
100 100 100 100 100 100 100 100 100 100 100 99 99 100 100 100 100 100 94 91 99 100 98 100 100 100 100 100 100 100 100 100 100 100 100 100 100 100 100 100 100 100 98 100
100 100 100 100 100 100 100 100 90 61 92 100 100 100 100 100 60 8 80 100 100 100 100 100 100 100 100 100 100 100 100 100 100 100 100 100 100 100 100 100 100 100 100 100
100 100 100 100 100 100 97 96 92 62 40 19 5 5 6 6 5 4 5 3 4 9 11 5 28 96 100 100 100 100 100 100 100 100 100 100 100 100 100 100 100 100 100 100
100 100 100 92 99 98 100 96 71 10 5 5 5 5 2 2 3 2 0 33 0 0 0 0 21 63 100 100 100 100 100 100 100 100 100 100 100 100 100 100 100 100 100 100
100 100 100 81 88 84 100 33 23 1 1 18 10 23 0 0 0 0 0 0 5 8 20 50 80 89 73 100 90 100 100 100 100 100 100 100 100 100 100 100 100 100 100 100
100 100 97 88 68 8 61 20 21 4 47 99 49 46 14 15 6 15 55 72 71 84 99 99 100 69 90 100 100 100 100 100 100 100 100 100 100 100 100 100 100 100 100 100

GFSCGP_prec_cloud_078.txt.gz
Cloud_Cover
4 46 0 53 48 41 81 64 6 72 100 100 100 64 5 42 40 30 52 5 5 5 0 0 0 0 0 0 0 100 100 100 100 100 100 100 100 100 100 100 100 100 100 100
1 2 5 100 100 100 100 69 99 100 100 99 54 20 5 12 39 26 90 17 21 9 5 0 0 0 0 0 0 36 100 100 100 100 100 100 100 100 100 100 100 100 100 100
4 0 9 98 100 100 100 62 95 100 100 100 76 6 10 4 40 98 100 40 37 99 5 0 0 0 0 0 0 22 37 100 100 100 100 100 100 100 100 100 100 100 100 100
24 38 3 31 21 100 95 100 100 100 100 78 100 20 5 58 10 100 100 100 100 100 17 0 0 0 0 0 0 0 5 100 49 100 100 100 100 100 98 99 88 100 100 100
2 13 24 5 100 100 100 100 100 100 100 100 81 76 100 98 5 97 100 100 18 5 0 0 0 0 0 0 0 0 3 100 95 99 100 100 100 100 100 100 100 100 100 100
6 95 42 40 100 100 100 100 100 100 100 97 100 86 100 100 18 99 100 100 79 5 0 0 0 0 0 0 0 0 0 14 100 100 100 100 100 100 100 95 100 100 100 100
39 87 100 100 100 100 100 100 100 100 97 71 100 91 100 100 22 100 100 100 100 55 1 0 0 0 0 0 0 0 0 7 37 100 98 45 62 70 50 93 100 99 99 100
75 100 100 100 100 100 100 100 100 100 94 99 100 100 100 100 12 8 100 100 100 100 5 5 5 0 0 0 28 0 2 0 0 32 82 83 81 100 82 92 100 20 83 91
100 100 100 100 100 100 100 100 100 100 100 100 100 100 100 100 100 21 64 62 100 100 58 5 5 0 0 0 9 68 100 90 0 46 100 100 100 100 100 96 91 94 24 25
100 100 100 100 100 100 100 100 100 100 100 88 100 100 100 100 100 100 95 56 99 100 100 100 25 0 0 0 0 100 100 100 12 1 1 85 100 95 100 100 100 88 99 10
100 100 100 100 100 100 100 100 100 100 100 100 100 100 100 100 100 100 99 62 100 100 100 100 100 99 8 0 0 0 58 21 96 100 40 0 26 64 100 100 100 100 100 47
100 100 100 100 100 100 100 100 100 100 100 100 100 100 100 100 99 86 100 82 18 100 100 100 100 75 5 1 4 3 5 3 2 100 100 4 0 0 0 31 2 19 42 44
100 100 100 100 100 100 100 100 100 100 100 100 100 100 100 100 100 100 96 100 100 96 21 78 61 67 6 5 5 0 0 1 2 9 100 33 1 0 0 0 14 0 0 0
100 100 100 100 100 100 100 100 100 100 100 100 100 100 100 100 100 100 100 100 100 100 84 83 99 100 98 17 34 3 3 0 3 5 12 54 50 5 5 1 0 5 2 10
100 100 100 100 100 100 100 100 100 100 100 100 100 100 100 100 100 100 100 100 100 100 97 48 98 79 100 100 84 62 5 5 3 5 5 4 5 5 72 86 3 1 8 18
100 100 100 100 100 100 100 100 100 100 100 100 100 100 100 100 100 100 77 100 85 100 100 100 100 98 100 100 92 76 12 5 5 5 5 5 5 5 34 100 100 100 5 0
99 100 100 100 100 100 100 100 100 100 100 100 100 100 100 100 57 100 100 92 100 100 100 100 100 100 100 100 100 86 21 22 5 5 6 5 5 85 100 72 100 100 100 11
100 100 100 100 100 100 100 100 100 100 100 100 100 100 100 100 99 99 100 62 100 100 100 100 100 100 100 100 100 100 99 100 46 83 100 99 88 50 96 93 71 100 95 100
100 100 100 100 100 100 100 100 100 100 100 100 100 100 100 100 100 100 100 100 100 100 100 89 61 100 100 100 100 100 100 100 95 50 85 100 100 97 100 69 100 100 87 100
100 100 90 98 100 100 100 100 100 100 100 98 100 100 100 100 100 100 100 100 100 100 83 100 100 60 100 95 72 58 84 100 100 100 97 100 100 100 96 96 100 100 100 100
100 100 100 100 96 100 100 99 100 100 100 100 100 100 100 100 100 100 100 100 100 100 100 100 100 100 100 100 100 85 100 100 100 95 96 100 85 100 100 98 89 94 100 100
100 100 100 100 90 100 100 100 100 100 100 100 100 100 100 100 100 100 100 100 100 100 100 100 100 100 100 100 100 100 100 100 100 100 100 100 100 98 100 100 100 96 95 100
100 100 100 100 100 100 100 100 100 100 100 100 99 94 100 100 86 44 88 100 100 100 100 100 100 100 100 100 100 100 100 100 100 100 100 100 100 100 100 100 100 100 100 100
99 100 100 100 100 100 100 100 100 100 100 100 100 100 100 100 100 100 100 100 100 100 100 100 100 100 100 100 100 100 100 100 100 100 100 100 100 100 100 100 100 100 100 100
100 99 100 100 100 100 100 100 100 100 100 100 100 100 91 93 94 79 73 42 48 58 80 100 100 100 100 100 100 100 100 100 100 100 100 100 100 100 100 100 100 100 100 100
99 100 100 100 100 100 100 100 100 100 61 32 66 47 24 6 25 68 96 100 100 100 100 100 100 100 100 100 100 100 100 99 54 98 100 100 100 100 100 100 100 100 100 100

GFSCGP_prec_cloud_081.txt.gz
Cloud_Cover
77 20 31 27 69 92 90 68 4 5 14 89 5 90 4 5 3 1 2 47 5 93 92 6 2 0 0 0 1 22 100 100 100 100 98 100 100 100 100 100 100 100 100 100
24 86 56 2 65 70 49 13 2 0 27 100 33 70 6 91 3 5 5 34 5 65 76 6 5 0 0 0 5 0 100 100 100 100 100 100 100 99 100 98 100 100 100 100
5 4 0 1 0 5 5 5 62 79 100 100 100 34 14 88 5 5 5 6 6 99 100 74 58 2 0 0 2 27 100 100 100 100 100 100 100 100 100 100 100 100 100 100
26 4 0 0 0 0 0 64 18 100 100 49 98 34 2 100 5 4 9 32 48 96 100 100 100 4 0 0 0 3 74 91 82 100 100 100 100 100 100 100 100 100 100 100
8 3 0 0 0 0 0 1 62 25 100 100 100 87 24 100 66 4 89 22 47 96 100 100 55 5 0 0 0 0 11 65 91 86 100 100 99 100 100 100 97 100 100 100
50 3 0 2 3 2 5 27 9 100 100 100 46 58 100 100 100 8 10 24 100 100 100 100 65 7 5 3 0 0 0 63 100 100 100 100 89 87 100 100 100 100 100 100
5 0 1 4 5 10 53 100 100 100 100 88 69 25 100 100 100 6 5 32 100 100 100 100 69 7 5 5 0 0 0 1 98 99 100 100 93 100 100 100 86 100 100 100
0 0 0 8 37 100 100 100 100 100 84 21 100 46 100 100 100 48 5 92 100 100 100 100 100 88 5 5 5 0 0 0 48 100 100 100 100 100 100 100 100 91 100 100
5 2 26 98 91 96 100 98 100 100 100 100 100 100 100 100 100 92 92 98 100 100 100 100 100 100 52 5 5 0 0 44 56 58 100 100 100 97 100 84 100 100 70 100
4 22 100 100 90 100 100 100 100 100 100 100 100 100 100 100 100 100 92 59 42 100 100 100 100 100 100 57 5 0 0 0 28 73 58 100 35 31 45 44 79 100 100 93
82 74 100 100 100 100 100 100 100 100 93 100 100 100 100 100 100 100 100 98 19 88 100 100 100 100 100 100 29 0 0 0 1 5 12 11 71 97 90 100 90 100 99 100
58 100 100 100 100 100 100 100 100 100 100 100 100 100 100 100 100 100 100 100 100 88 96 100 100 100 100 100 98 100 7 3 5 50 5 0 4 16 100 100 100 100 100 100
100 100 100 100 100 100 100 100 100 100 100 100 100 100 100 100 100 100 100 100 88 100 98 78 95 100 100 100 100 100 100 100 28 5 5 5 5 0 0 38 91 94 100 100
6 100 100 100 100 100 100 100 100 100 100 100 100 100 100 100 100 100 100 100 100 100 94 100 100 49 15 94 98 82 7 21 86 24 5 5 5 5 2 2 0 0 4 34
11 100 100 100 100 100 100 100 100 100 100 100 100 100 100 100 100 100 100 100 100 100 100 100 24 29 42 51 15 53 100 100 56 5 7 6 10 5 12 6 5 0 0 4
68 100 100 100 100 100 100 100 100 100 100 100 100 100 100 100 100 100 100 100 71 100 100 100 94 100 100 99 90 100 100 100 96 95 72 29 13 32 20 8 8 5 1 13
73 95 100 100 100 100 100 100 100 100 100 100 100 100 100 100 100 100 100 98 97 100 95 100 100 100 97 53 98 57 95 40 74 100 94 60 35 5 5 69 83 82 80 23
91 100 100 100 100 100 100 100 100 100 100 100 100 64 100 100 100 81 95 71 100 100 100 100 100 100 99 100 11 49 69 18 7 5 73 100 95 56 26 5 5 5 5 5
5 5 63 100 100 100 100 100 100 100 100 100 100 89 91 100 100 100 100 100 100 100 100 93 100 67 28 56 61 92 100 92 56 60 94 99 87 100 100 98 78 90 54 60
0 5 4 96 100 100 100 100 100 100 100 100 100 100 100 100 100 100 100 94 100 100 100 100 100 100 100 100 100 100 100 100 100 100 100 100 100 100 100 100 100 100 100 100
18 17 5 32 86 100 100 100 100 100 96 72 100 100 100 100 100 100 100 100 100 100 100 100 100 100 100 100 100 100 100 100 100 89 99 100 100 100 100 100 89 99 100 93
100 100 98 85 94 97 100 100 100 100 100 100 83 100 100 100 100 100 100 100 100 100 100 100 100 100 100 100 100 100 100 100 100 97 95 100 100 100 100 100 100 100 90 100
100 100 95 48 83 70 100 100 100 100 100 100 100 100 100 100 100 100 100 100 100 100 100 100 100 100 100 100 100 100 100 100 100 100 100 100 100 48 98 100 100 100 100 100
100 100 100 100 87 100 100 100 100 100 100 100 100 100 100 100 100 100 100 97 100 100 100 100 100 100 100 100 100 100 100 100 100 100 100 100 100 100 100 100 100 100 100 100
100 100 100 100 100 100 100 100 100 100 100 100 100 100 100 100 100 100 100 100 100 100 100 100 98 100 100 100 100 100 100 100 100 100 99 100 99 88 100 100 100 100 100 100
100 100 100 100 100 100 100 100 100 100 100 100 91 100 94 96 100 100 100 100 100 100 100 100 100 100 100 100 100 100 100 100 100 100 100 98 97 100 100 100 100 100 100 100

GFSCGP_prec_cloud_084.txt.gz
Cloud_Cover
100 61 99 100 95 24 5 5 5 5 55 16 4 0 0 0 0 3 0 0 0 5 0 5 13 5 26 72 83 100 100 96 100 100 100 100 100 100 100 100 100 100 100 100
87 100 57 6 19 47 31 5 5 5 5 6 3 0 0 0 4 0 0 0 1 5 5 3 52 18 9 92 58 46 80 100 77 100 100 100 98 100 100 100 100 100 100 100
100 100 100 71 65 50 28 4 5 4 5 43 40 0 0 0 0 0 0 0 2 90 5 5 96 5 27 79 84 0 5 100 100 100 97 100 100 100 100 100 100 100 100 100
60 100 61 24 5 1 1 4 1 0 2 2 24 44 0 2 3 4 0 1 5 100 8 5 96 7 75 49 42 12 11 81 100 100 100 100 100 100 100 100 100 98 100 100
98 65 26 45 5 13 59 5 0 0 0 32 5 72 0 6 0 6 64 16 100 100 85 5 76 32 100 43 54 33 96 94 98 100 100 100 100 100 100 100 100 96 100 100
100 77 28 89 82 57 5 4 2 1 17 84 2 24 0 25 44 100 100 60 100 100 100 26 22 76 100 42 71 100 100 100 100 100 100 100 100 100 90 100 100 100 97 94
100 100 100 100 100 53 5 27 37 100 100 28 2 5 94 88 65 100 100 52 100 100 100 98 6 99 100 86 52 97 100 100 100 69 97 100 100 100 87 78 34 67 97 100
100 100 100 100 62 6 0 26 72 99 69 24 6 23 27 74 100 100 98 28 100 100 100 100 61 58 100 70 18 23 79 94 99 56 96 100 100 100 100 97 11 0 4 100
100 100 100 94 12 5 2 50 93 100 100 97 89 7 100 100 100 100 100 60 99 100 100 100 80 100 100 100 100 5 6 3 10 12 80 100 100 100 100 100 100 22 3 5
100 81 5 5 4 17 5 61 100 100 96 100 100 78 100 100 100 100 100 99 84 100 100 100 81 100 100 100 100 86 10 5 0 0 1 63 100 100 100 100 100 100 100 48
100 100 12 4 4 84 7 100 100 100 100 100 100 100 100 100 100 100 36 64 74 99 100 100 100 100 100 100 100 100 100 30 4 0 5 6 100 100 100 100 100 100 100 100
100 86 32 3 5 100 97 85 100 100 100 96 100 100 100 100 100 100 100 89 91 6 100 100 100 100 100 100 100 100 100 78 5 3 14 5 38 100 100 100 38 81 100 100
67 25 100 65 6 100 100 100 100 100 100 99 100 100 100 100 100 100 100 100 100 96 100 100 100 100 100 100 100 100 100 100 100 100 80 32 40 81 56 65 99 100 100 100
49 40 36 73 56 100 100 100 100 100 100 99 98 100 100 100 100 100 100 100 100 100 100 100 100 100 100 100 100 100 100 100 100 100 100 88 31 13 7 5 5 44 87 100
46 49 35 21 34 100 100 100 100 100 100 100 100 98 100 100 100 100 100 100 100 98 100 97 100 100 100 100 100 100 100 100 100 100 100 100 68 12 31 5 12 30 43 5
88 93 5 5 93 100 100 100 100 100 100 100 100 100 100 100 100 100 100 100 100 100 100 99 100 100 96 100 100 100 100 100 100 100 100 100 100 100 100 40 38 5 56 29
94 100 39 5 100 100 100 100 100 100 100 100 100 100 100 100 100 100 100 100 100 100 99 100 99 100 92 100 96 83 99 90 38 17 85 97 100 100 100 100 99 61 66 83
74 96 35 100 100 100 100 100 100 100 100 100 100 100 100 100 100 100 100 100 100 100 100 100 100 100 95 100 96 91 82 87 98 88 97 93 74 98 100 100 100 100 100 100
1 8 11 26 100 100 100 100 100 100 100 100 100 100 100 100 100 98 100 100 100 100 100 100 100 100 100 100 100 100 76 80 98 72 92 99 100 100 99 100 100 100 100 100
1 0 3 5 20 100 100 100 100 100 100 100 78 100 100 100 100 100 100 100 100 100 100 100 100 75 74 100 100 60 96 100 100 100 97 100 100 100 100 100 100 100 100 100
10 84 7 5 68 83 100 100 100 100 100 100 98 100 100 100 100 100 100 100 100 100 100 100 100 100 100 100 99 100 100 100 100 46 93 100 100 100 100 100 100 100 100 100
13 100 86 78 85 60 100 100 100 100 100 100 100 100 100 100 99 100 100 100 100 100 100 100 100 91 100 100 99 42 80 100 100 82 69 39 56 75 98 100 100 100 100 100
93 85 100 100 4 97 100 100 100 100 100 100 100 100 100 84 76 81 100 100 100 100 100 100 100 100 79 100 100 100 100 100 100 100 99 69 97 100 100 98 81 97 100 100
100 100 100 88 100 100 100 99 100 100 100 100 100 100 100 100 100 100 100 48 99 100 100 100 100 100 100 100 100 100 100 100 100 100 100 100 100 93 100 100 100 100 100 100
100 100 100 100 100 100 100 100 100 100 100 100 100 100 100 100 100 100 100 100 100 100 100 100 100 100 100 100 100 100 100 100 100 100 100 100 100 100 100 100 100 100 100 100
100 100 100 100 100 100 100 100 100 100 100 100 100 100 100 100 100 100 100 100 100 100 100 100 100 100 100 100 100 100 100 100 100 99 100 100 100 100 100 100 91 90 94 97

GFSCGP_prec_cloud_087.txt.gz
Cloud_Cover
100 2 1 72 81 5 4 3 5 100 100 100 25 0 0 5 0 0 5 5 5 5 0 0 0 4 74 100 100 100 89 100 100 100 100 100 100 100 100 100 100 100 100 100
100 39 98 80 6 5 5 60 100 100 100 93 4 0 0 5 4 0 1 5 9 1 0 0 2 68 100 100 100 100 100 100 100 100 96 96 100 100 100 100 100 100 100 100
100 100 100 82 91 25 18 91 100 52 34 23 4 0 0 13 5 5 15 5 50 5 3 3 19 77 100 100 100 100 100 100 62 100 100 98 100 100 100 100 100 100 100 100
71 100 100 100 100 100 90 100 100 99 43 5 0 1 0 67 5 5 5 5 29 5 5 70 60 67 100 100 100 100 100 100 100 62 76 90 77 100 100 100 100 100 100 100
100 100 100 89 100 83 100 100 99 75 64 15 3 4 5 14 1 2 5 0 3 5 5 100 100 17 44 100 99 100 100 100 100 100 69 67 100 100 100 100 100 100 100 100
100 100 100 100 100 100 100 100 88 33 5 38 5 5 0 19 2 3 2 0 1 17 64 100 100 52 64 100 100 100 23 71 100 100 96 45 100 99 100 100 97 100 100 100
100 100 100 100 100 100 100 60 8 40 96 5 35 23 0 0 0 0 0 0 79 98 72 100 100 40 100 100 100 87 93 100 73 66 87 75 67 79 100 100 100 100 100 97
100 100 100 100 100 100 100 100 30 13 98 98 98 24 2 2 0 0 0 1 14 45 45 100 100 4 49 100 100 100 100 100 80 100 97 92 92 62 100 100 41 38 100 50
100 100 100 100 100 100 100 93 60 50 31 65 6 5 5 2 0 1 18 100 100 97 100 100 49 9 11 77 99 99 100 100 100 100 100 100 65 82 50 7 21 0 0 5
100 100 100 100 100 63 96 62 72 99 100 61 4 4 5 60 67 100 100 68 96 100 100 100 74 100 22 22 50 61 100 100 100 100 100 100 63 67 60 6 4 0 0 0
100 100 100 100 100 100 100 84 50 91 100 100 39 77 100 100 100 100 98 62 100 100 100 100 100 98 70 54 48 89 100 100 100 100 99 76 59 59 99 100 80 92 43 0
100 100 100 100 100 100 100 96 100 100 73 100 100 76 100 100 100 92 99 33 100 100 100 100 100 100 83 31 100 100 100 100 100 100 100 51 42 33 100 100 100 100 100 93
100 100 100 100 100 99 99 79 99 100 100 100 100 79 100 100 100 100 100 100 95 87 98 100 100 100 100 16 100 100 100 100 100 100 100 98 58 85 61 100 100 100 100 100
100 100 100 100 99 84 100 100 100 84 100 100 100 100 100 100 100 100 100 100 99 100 90 100 100 100 100 95 100 100 100 100 100 100 100 100 100 100 94 98 100 98 85 100
100 100 100 100 5 31 7 49 72 100 100 100 100 100 100 100 100 100 100 100 100 100 77 100 100 100 100 100 100 100 100 100 100 100 100 100 100 100 100 100 100 99 83 58
100 100 100 100 25 5 5 88 75 100 100 100 100 100 100 100 100 100 100 100 100 100 100 100 100 100 100 100 100 100 100 100 100 100 100 100 100 100 100 100 100 100 100 94
99 100 100 53 13 5 5 91 100 99 100 100 100 100 100 100 100 100 100 100 100 100 100 100 100 100 100 100 100 100 100 100 94 100 100 100 100 100 100 100 100 100 100 100
95 69 54 82 17 5 13 97 99 100 100 100 100 100 100 100 100 100 100 100 100 100 100 100 100 100 100 100 100 100 100 100 100 100 100 100 100 100 100 100 100 100 100 100
6 5 63 52 7 5 67 85 72 100 100 100 100 100 100 100 100 100 100 100 100 100 100 100 100 100 100 100 100 100 100 100 100 100 100 98 86 59 97 100 100 100 100 100
5 5 5 98 54 13 100 78 93 100 100 100 100 100 100 100 100 100 100 100 100 100 100 100 100 100 100 100 100 100 100 100 100 100 100 100 100 100 100 96 100 100 100 100
26 41 81 75 82 7 99 31 100 73 100 100 100 100 100 100 100 100 100 100 100 100 100 100 100 100 100 100 100 100 100 100 100 100 100 100 100 100 99 98 99 91 100 100
18 66 60 85 98 72 100 8 100 47 96 100 100 100 100 100 100 100 100 100 100 100 100 100 100 100 100 100 100 100 100 100 100 89 73 99 93 100 100 100 100 100 95 100
12 84 100 100 100 65 40 98 97 100 89 100 100 100 100 100 100 100 100 100 100 100 100 100 100 100 93 100 100 100 100 100 54 61 99 60 88 100 100 100 100 100 100 100
50 98 100 100 96 100 100 100 98 100 100 97 100 100 100 100 100 100 100 100 100 100 100 100 100 100 100 100 100 100 94 100 87 65 90 59 98 85 96 100 100 100 100 100
100 100 100 100 100 100 100 100 100 99 100 100 100 100 100 100 100 100 100 100 100 100 100 100 100 100 100 100 100 100 98 99 100 100 100 86 88 90 96 100 100 100 100 100
100 100 100 100 100 100 100 100 100 100 100 100 100 100 100 100 100 100 100 100 100 100 100 100 100 100 100 100 100 100 100 100 100 100 100 86 100 83 86 96 99 100 100 100

GFSCGP_prec_cloud_090.txt.gz
Cloud_Cover
100 68 5 5 100 100 100 8 2 0 5 0 0 0 0 28 58 5 5 5 5 5 5 1 5 4 26 62 69 100 100 100 100 100 100 100 100 100 100 100 100 100 100 100
100 11 51 100 100 64 27 15 5 5 37 3 4 0 0 54 98 5 6 5 44 17 6 5 5 17 6 42 95 100 100 100 100 100 100 38 90 100 100 100 100 100 100 100
100 100 100 95 100 88 86 96 5 6 5 0 2 1 0 5 74 100 29 5 20 77 66 9 33 35 35 36 98 100 100 100 100 100 99 61 98 100 100 100 100 100 100 100
100 100 100 100 100 100 100 100 100 57 4 4 5 0 5 79 86 100 94 5 6 9 16 41 4 46 68 60 99 100 100 96 100 100 100 100 99 100 97 100 100 100 100 100
100 100 100 100 100 100 100 100 97 95 40 28 6 6 95 100 100 98 10 5 5 5 28 100 4 5 8 100 100 100 100 100 100 100 100 100 100 61 79 100 100 100 100 100
100 100 100 100 100 100 100 100 97 70 81 54 92 54 95 49 100 100 5 1 0 4 5 86 0 1 46 81 100 100 100 100 100 100 100 100 100 41 69 100 100 100 100 100
100 100 100 100 100 100 100 100 100 100 100 58 100 15 98 52 38 72 56 3 0 5 5 2 0 9 44 84 100 100 100 100 100 100 100 100 93 4 55 100 100 100 100 100
100 100 100 100 100 100 100 100 100 100 90 5 7 20 100 86 0 5 5 5 0 2 0 0 2 2 88 72 100 100 100 100 100 100 100 100 51 19 100 100 100 100 100 100
100 100 100 100 96 96 100 100 100 100 100 100 100 100 78 5 5 4 5 0 0 0 0 5 5 72 100 59 100 93 37 38 43 100 98 95 100 61 97 47 100 100 94 55
100 100 100 100 99 89 100 67 100 100 100 100 100 100 32 8 61 84 34 54 45 3 0 1 66 100 100 46 100 80 75 97 26 66 89 92 100 95 97 100 100 95 37 18
100 100 100 100 100 100 92 100 100 100 100 72 76 13 54 10 86 38 100 100 100 100 14 100 100 100 100 100 100 100 100 100 93 100 100 100 100 99 64 100 64 18 2 9
100 100 100 100 100 100 100 100 100 100 100 97 97 80 5 31 100 100 100 100 100 100 100 100 100 100 100 100 100 100 100 100 100 100 100 100 100 99 45 100 100 93 13 5
100 100 100 100 100 100 100 100 100 100 100 96 100 35 99 40 100 100 100 100 100 100 100 100 100 100 100 100 100 100 88 97 99 100 100 100 100 100 83 99 100 100 100 100
100 100 100 100 100 100 100 100 100 70 94 59 80 30 100 100 100 100 100 100 100 100 100 100 100 100 100 100 100 100 100 100 100 98 100 100 100 100 100 100 88 100 100 100
100 100 100 100 100 100 100 100 97 6 38 70 61 72 98 100 100 100 100 100 100 100 100 100 100 100 100 100 100 100 100 100 100 100 100 100 100 100 100 100 100 100 99 99
100 100 100 100 100 100 100 100 5 5 46 5 20 98 100 100 100 100 100 100 100 100 100 100 100 100 100 100 100 100 100 100 100 100 100 100 100 100 100 100 100 100 100 100
100 100 100 100 100 57 100 49 5 5 5 74 48 100 100 100 100 100 100 100 100 100 100 100 100 100 100 100 100 100 100 100 100 100 100 100 100 100 100 100 100 100 100 100
100 100 100 100 100 98 100 34 5 5 5 10 100 100 100 100 100 100 100 100 100 100 100 100 100 100 100 100 100 100 100 100 100 100 100 100 100 100 100 100 100 100 100 100
100 100 100 100 100 100 100 100 46 5 0 7 100 100 100 100 100 100 100 100 100 100 100 100 100 100 100 100 100 100 100 100 100 100 100 100 100 100 100 100 100 100 100 100
100 86 83 100 100 100 100 100 92 5 5 31 100 100 100 100 100 100 100 100 100 100 100 100 100 100 100 100 100 100 100 100 100 100 100 100 100 100 100 100 100 100 100 100
100 99 100 100 100 96 100 100 12 0 57 91 100 100 100 100 100 100 100 100 100 100 100 100 100 100 100 100 100 100 100 100 100 100 100 100 100 100 100 100 100 100 100 100
67 100 99 100 100 100 100 97 92 56 100 98 100 100 100 100 100 100 100 100 100 100 100 100 100 100 100 100 100 100 100 100 100 100 100 100 100 100 100 100 100 100 100 100
40 83 93 66 91 100 99 100 100 100 100 100 100 100 100 100 100 100 100 100 100 100 100 100 100 100 100 100 100 100 100 100 100 100 100 100 100 100 100 100 100 100 100 100
100 94 100 100 100 100 100 100 100 100 100 100 98 100 100 100 100 100 100 100 100 100 100 100 100 100 100 100 100 100 100 100 100 100 100 100 100 100 100 95 100 100 100 100
100 100 99 100 100 100 100 100 100 100 100 99 100 93 100 100 100 100 100 100 100 100 100 100 100 98 100 100 100 100 100 100 100 100 98 98 100 99 99 99 100 100 100 100
98 100 100 100 100 100 100 100 100 100 100 100 100 99 92 100 100 100 100 100 100 100 100 100 100 100 100 100 100 99 97 100 100 100 100 100 100 100 100 100 100 100 100 100

GFSCGP_prec_cloud_093.txt.gz
Cloud_Cover
100 100 85 92 100 100 100 80 86 21 5 5 46 13 5 0 5 99 5 5 1 5 100 100 100 100 22 0 0 5 95 100 100 100 100 100 100 100 100 100 100 100 100 100
100 100 100 100 100 100 92 5 9 90 57 5 5 32 8 0 3 5 5 2 0 3 5 10 12 16 26 2 0 57 100 100 100 100 100 96 73 100 100 100 100 100 100 100
100 100 100 100 100 100 100 79 64 28 48 29 20 83 5 3 2 5 21 4 3 2 42 41 5 5 5 3 0 90 100 100 100 100 99 100 94 100 99 100 100 100 99 100
100 100 100 100 100 100 100 100 100 96 78 100 100 100 5 5 5 5 5 0 0 0 6 90 73 5 5 4 18 100 100 100 100 100 99 97 31 100 99 100 100 100 100 100
100 100 100 100 100 100 100 100 100 83 72 99 72 5 63 96 100 6 20 4 0 5 5 29 60 56 4 0 42 100 100 100 100 100 100 99 87 100 68 86 100 100 100 100
100 100 100 100 100 100 100 100 100 90 100 67 88 80 69 86 98 35 5 5 5 5 5 14 92 63 4 4 61 99 100 100 100 100 100 76 89 100 92 98 100 100 100 100
100 100 100 100 100 100 100 100 100 97 95 95 95 86 100 16 5 83 100 74 78 100 100 11 8 30 5 12 99 100 98 99 100 100 100 89 93 99 72 24 100 100 100 100
100 100 100 100 100 100 100 100 100 100 100 22 54 26 34 4 4 5 100 100 100 100 98 92 100 100 34 13 100 100 100 100 100 100 100 100 100 67 76 63 96 100 100 100
100 100 100 100 100 97 100 100 100 100 10 89 100 100 100 8 10 5 100 100 99 100 23 7 5 56 29 5 91 100 100 100 100 100 100 100 100 89 67 100 100 100 100 100
100 100 100 100 100 100 100 100 100 95 97 100 100 99 100 100 100 100 81 13 94 100 89 64 5 5 5 20 94 100 100 100 100 100 100 100 100 100 98 62 96 100 100 100
100 100 100 100 100 100 100 100 100 100 100 100 100 100 100 80 25 86 95 59 100 100 100 99 11 5 40 100 100 100 100 100 100 100 100 100 82 100 100 100 73 100 100 100
100 100 100 100 100 100 100 100 100 99 56 86 99 100 97 11 72 12 57 95 100 100 100 100 100 94 99 100 100 100 100 100 78 71 99 97 55 100 100 97 79 94 60 55
100 100 100 100 100 100 100 99 29 71 88 96 86 58 18 8 5 66 71 67 86 100 100 100 100 100 100 100 100 100 100 100 100 96 100 100 100 100 100 95 100 100 100 64
100 100 100 100 100 100 100 100 35 6 32 8 100 100 84 15 27 100 81 100 97 100 100 100 100 100 100 100 100 100 100 100 100 100 100 100 100 100 100 100 100 100 100 100
100 100 100 99 86 100 100 100 47 5 14 100 85 100 100 59 21 100 100 100 100 100 100 100 100 100 100 100 100 100 100 100 100 100 100 100 100 100 100 100 100 100 100 100
100 100 100 97 74 92 100 33 97 9 74 100 100 46 96 5 16 100 100 100 100 100 100 100 100 100 100 100 100 100 100 100 100 100 100 100 100 100 100 100 100 100 100 100
100 100 100 96 82 100 100 100 100 100 100 100 86 48 99 54 100 100 100 100 100 100 100 100 100 100 100 100 100 100 100 100 100 100 100 100 100 100 100 100 100 100 100 100
100 100 100 84 100 100 100 100 100 100 100 96 5 14 41 87 100 100 100 100 100 100 100 100 100 100 100 100 100 100 100 100 100 100 100 100 100 100 100 100 100 100 100 100
75 100 100 100 100 100 100 100 100 100 75 46 43 20 98 100 100 100 100 100 100 100 100 100 100 100 100 100 100 100 100 100 100 100 100 100 100 100 100 100 100 100 100 100
100 100 100 100 100 100 100 99 98 18 96 88 82 42 98 100 100 100 100 100 100 100 100 100 100 100 100 100 100 100 100 100 100 100 100 100 100 100 100 100 100 100 100 100
100 100 100 100 100 100 100 22 5 5 30 100 98 100 98 100 100 100 100 100 100 100 100 100 100 100 100 100 100 100 100 100 100 100 100 100 100 100 100 100 100 100 100 100
100 100 100 100 100 100 100 7 30 77 100 100 100 100 100 100 100 100 100 100 100 100 100 100 100 100 100 100 100 100 100 100 100 100 100 100 100 100 100 100 100 100 100 100
100 100 100 100 100 100 100 100 100 100 100 100 100 100 100 100 100 100 100 100 100 100 100 100 100 100 100 100 100 100 100 100 100 100 100 100 100 100 100 100 100 100 100 100
99 99 99 100 100 100 100 100 100 100 100 100 100 100 100 100 100 100 100 100 100 100 100 100 100 100 100 100 100 100 100 100 100 100 100 100 100 100 100 100 100 100 100 100
83 62 96 100 100 100 99 100 100 100 100 100 100 100 100 100 100 100 100 100 100 100 100 100 100 100 100 100 100 100 100 100 100 100 100 100 100 100 100 100 100 100 100 99
93 100 100 100 100 100 100 100 100 100 100 100 100 99 100 100 100 100 100 100 100 100 100 100 100 100 100 99 100 95 93 100 100 99 96 100 100 100 100 97 100 100 100 100

GFSCGP_prec_cloud_096.txt.gz
Cloud_Cover
5 68 2 21 100 100 100 100 100 100 100 100 100 100 5 66 98 72 100 5 5 5 15 0 0 5 100 100 100 100 76 84 100 100 100 100 100 100 100 46 40 100 100 100
33 0 33 100 100 100 100 100 100 100 30 100 100 100 100 12 87 95 29 66 5 2 0 1 2 5 8 5 87 100 9 100 100 46 17 60 87 100 90 80 41 100 100 100
93 74 100 100 100 100 100 99 100 100 100 100 100 100 100 98 7 96 12 5 5 5 4 2 0 0 2 5 8 2 5 100 100 8 26 63 100 100 100 75 96 100 100 100
100 100 100 100 97 100 100 100 100 100 100 100 100 100 100 100 90 8 5 5 5 5 0 4 5 0 1 24 99 5 7 100 100 57 22 4 9 39 56 38 97 100 100 100
100 100 100 100 100 100 100 100 100 100 100 99 100 100 100 100 46 83 70 49 40 7 5 5 5 4 0 2 5 5 54 100 100 100 6 4 4 5 77 49 98 100 100 100
100 100 100 100 100 100 100 100 100 100 100 100 100 100 100 68 100 67 6 58 100 100 97 5 5 5 5 5 5 5 100 100 100 96 28 5 0 30 87 53 88 100 100 100
100 100 100 100 100 100 100 100 100 100 100 100 100 100 100 95 93 99 62 33 98 98 5 31 19 5 8 5 5 62 100 100 100 100 59 25 5 58 78 49 94 100 100 100
100 100 100 100 100 100 100 100 100 100 100 100 100 100 100 78 5 63 100 98 56 54 14 60 48 14 5 5 5 94 100 100 100 100 84 34 6 60 80 100 42 100 100 100
100 100 100 100 100 100 100 100 100 100 100 100 100 100 100 69 23 11 87 98 58 28 41 52 63 6 39 100 100 100 100 85 100 100 100 77 46 50 100 93 100 100 94 100
100 100 100 100 100 100 100 100 100 100 100 100 100 100 100 100 94 82 100 100 100 67 92 32 100 67 100 100 100 100 100 100 100 100 100 94 58 96 100 100 60 52 99 97
100 100 100 100 100 100 100 100 100 100 100 100 100 100 100 100 9 20 99 100 100 38 55 90 100 100 100 100 100 100 100 100 100 100 100 100 100 100 100 100 66 98 98 100
100 100 100 100 100 100 100 100 100 100 100 100 100 91 63 11 5 34 77 100 85 96 78 93 100 100 100 100 100 100 100 100 100 100 100 100 73 100 100 100 100 100 89 100
100 100 100 100 100 100 100 100 100 100 100 100 100 100 54 21 6 97 86 100 76 6 44 67 100 100 100 100 100 100 100 100 100 100 100 100 100 100 100 100 91 72 87 80
100 100 100 100 100 100 100 100 100 100 100 100 100 97 100 88 99 85 100 100 99 95 52 100 100 100 100 100 100 100 100 100 100 100 100 100 100 100 100 100 84 100 100 100
100 100 100 100 100 100 100 100 100 100 72 50 86 94 6 65 53 96 100 100 100 86 57 100 100 100 100 100 100 100 100 100 100 100 100 100 100 100 100 100 100 100 100 100
100 100 100 100 100 100 100 100 100 87 54 25 66 66 100 69 93 97 100 100 100 100 100 100 100 100 100 100 100 100 100 100 100 100 100 100 100 100 100 100 100 100 100 100
100 100 100 100 100 100 100 99 100 31 7 28 48 76 99 96 100 100 100 100 100 100 100 100 100 100 100 100 100 100 100 100 100 100 100 100 100 100 100 100 100 100 100 100
100 100 100 100 100 100 61 35 80 45 65 62 75 97 100 98 100 100 100 100 100 100 100 100 100 100 100 100 100 100 100 100 100 100 100 100 100 100 100 100 100 100 100 100
100 83 97 88 98 89 83 91 53 26 58 77 92 100 100 100 100 100 100 100 100 100 100 100 100 100 100 100 100 100 100 100 100 100 100 100 100 100 100 100 100 100 100 100
100 100 100 100 100 100 99 99 100 100 100 100 100 100 100 100 100 100 100 100 100 100 100 100 100 100 100 100 100 100 100 100 100 100 100 100 100 100 100 100 100 100 100 100
100 100 100 100 100 90 90 48 93 100 75 100 100 100 100 100 100 100 100 100 100 100 100 100 100 100 100 100 100 100 100 100 100 100 100 100 100 100 100 100 100 100 100 100
100 100 100 100 100 100 100 59 99 100 100 100 100 100 100 100 100 100 100 100 100 100 100 100 100 100 100 100 100 100 100 100 100 100 100 100 100 100 100 100 100 100 100 100
100 84 100 100 100 100 100 100 100 100 100 100 100 100 100 100 99 100 100 100 100 100 99 91 100 100 100 100 100 100 100 100 100 100 100 100 100 100 100 100 100 100 100 100
100 100 99 100 100 100 100 100 100 100 100 100 100 100 100 100 99 89 100 100 100 100 98 91 80 97 100 100 100 100 100 100 100 100 100 100 100 100 100 100 100 100 100 100
100 100 100 100 100 100 100 100 100 100 100 100 100 100 100 86 90 97 100 100 100 100 100 96 98 98 100 100 100 100 100 100 100 100 100 100 100 100 100 100 100 100 100 100
100 100 100 100 100 100 100 100 100 96 95 100 100 100 84 88 88 87 100 100 100 100 100 100 100 97 96 100 100 100 100 100 100 100 100 100 100 100 100 100 100 100 100 100

GFSCGP_prec_cloud_102.txt.gz
Cloud_Cover
5 100 44 0 0 0 0 5 6 48 35 100 100 26 100 100 100 59 5 36 36 6 4 97 16 5 4 68 5 5 5 5 5 9 12 100 28 99 84 2 0 50 0 0
1 16 98 0 0 0 0 99 94 44 23 88 100 33 96 100 86 88 95 6 100 9 15 100 32 5 26 100 100 5 6 68 17 5 13 100 100 100 100 92 29 0 0 0
0 3 54 10 0 0 2 48 3 31 100 100 100 98 56 46 100 100 65 99 93 85 18 4 8 92 100 100 100 72 42 5 16 5 73 100 100 99 100 47 1 11 1 0
2 40 88 96 0 20 7 46 28 96 83 100 100 100 97 100 77 100 100 100 100 100 94 5 92 100 100 100 100 99 96 22 27 5 67 100 18 28 35 58 39 0 0 6
0 5 2 100 1 14 98 100 100 81 40 100 100 100 100 100 100 100 100 100 100 100 100 100 100 100 100 97 97 98 100 100 37 16 5 5 6 24 9 18 1 1 22 93
16 100 91 100 87 30 99 87 38 79 20 100 100 94 75 100 100 100 100 100 100 100 100 100 100 100 100 100 100 100 75 100 46 88 7 5 5 40 0 0 12 61 100 98
99 29 7 100 98 100 47 75 100 98 100 42 100 100 89 100 100 100 95 100 100 100 100 100 100 100 100 100 100 100 100 100 39 44 68 8 31 9 21 0 1 100 100 98
61 99 63 1 17 16 7 36 23 19 24 100 100 100 100 100 100 100 100 92 41 100 100 100 100 100 100 100 100 100 68 99 95 90 46 65 98 33 82 0 5 39 99 100
100 100 55 99 88 4 31 92 95 100 100 100 100 100 100 100 100 97 97 66 99 100 100 100 100 100 100 100 100 100 100 100 100 96 87 34 46 100 98 1 5 14 76 100
100 100 100 100 77 72 100 100 100 100 100 100 100 100 100 100 100 100 67 99 100 100 100 100 100 100 100 100 100 100 100 100 100 100 100 71 74 100 98 4 0 30 46 100
100 100 55 100 100 100 100 100 100 100 100 100 98 100 100 100 100 100 100 100 100 100 100 100 100 100 100 100 100 100 100 100 100 100 37 6 100 100 98 71 20 6 26 76
100 99 100 100 100 100 100 100 100 100 100 100 100 100 100 100 100 100 100 100 100 100 98 100 100 100 100 100 100 100 100 100 100 99 20 97 100 100 88 100 97 88 43 39
100 100 100 100 100 100 100 100 100 100 100 100 100 100 100 100 100 100 84 86 100 100 100 100 100 100 100 100 100 100 100 100 100 100 100 100 100 100 100 100 57 100 100 100
100 100 100 100 100 100 100 100 100 100 100 100 100 100 100 100 100 99 97 100 100 100 100 100 100 100 100 100 100 100 100 100 100 100 100 100 100 100 100 100 100 100 100 100
100 100 100 100 100 100 100 100 100 100 100 100 100 100 100 100 100 100 100 100 100 100 100 100 100 100 100 100 100 100 100 100 100 100 100 100 100 100 100 100 100 100 100 100
100 100 100 100 100 100 100 100 100 100 100 100 100 100 100 100 100 100 100 100 100 100 100 100 100 100 100 100 100 100 100 100 100 100 100 100 100 100 100 100 100 100 100 100
100 100 100 100 100 100 100 100 100 100 100 100 100 100 100 100 100 100 100 100 100 100 100 100 100 100 100 100 100 100 100 100 100 100 100 100 100 100 100 100 100 100 100 100
100 100 100 100 100 100 100 100 100 100 100 100 100 100 100 100 100 100 100 100 100 100 92 82 97 100 100 100 100 100 100 100 100 100 100 100 100 100 100 100 100 100 100 100
100 100 100 100 100 100 100 100 100 100 100 100 100 100 100 100 100 100 100 100 100 100 99 72 84 100 100 100 100 100 100 100 100 100 100 100 100 100 100 100 100 100 100 100
100 100 100 100 100 100 100 100 100 100 100 100 100 100 100 100 100 100 100 100 100 93 62 34 57 87 98 100 100 100 100 100 100 100 100 100 100 100 100 100 100 100 100 100
100 100 100 100 100 100 100 100 100 100 100 100 100 100 100 100 100 100 99 99 100 99 88 16 46 76 100 100 100 100 100 100 100 100 100 100 100 100 100 100 100 100 100 100
100 100 100 100 94 100 100 100 100 100 100 100 100 100 100 100 100 100 100 100 98 82 100 97 55 83 100 100 100 100 100 100 100 100 100 100 100 100 100 100 100 100 100 100
100 100 100 100 100 100 100 100 100 100 100 100 100 100 100 100 100 97 100 100 100 98 100 97 85 99 100 100 100 100 100 100 100 100 100 100 100 100 100 100 100 100 100 100
100 100 97 100 100 100 100 100 100 100 100 100 100 100 100 100 74 85 92 81 87 78 100 100 81 100 100 100 100 100 100 100 100 100 100 100 100 100 100 100 100 100 100 100
100 96 100 100 100 100 100 100 100 100 100 100 100 100 100 100 100 100 100 92 96 92 100 100 93 100 100 100 100 100 100 100 100 100 100 100 100 100 100 100 100 100 100 100
100 99 100 100 100 89 100 100 99 85 81 81 84 81 74 90 98 98 94 97 98 99 100 100 100 100 100 100 100 100 100 100 100 100 100 100 100 100 100 100 100 100 100 100

GFSCGP_prec_cloud_105.txt.gz
Cloud_Cover
0 0 18 48 4 1 0 5 6 0 0 2 100 64 5 48 96 5 100 100 46 1 5 100 100 100 100 67 0 0 5 87 62 5 11 32 5 5 1 0 0 0 0 0
84 7 0 1 87 95 13 0 3 6 23 74 12 9 0 3 1 0 100 100 100 31 35 81 100 99 100 77 0 0 21 100 99 5 5 6 83 47 99 4 21 15 0 0
63 14 100 0 4 79 36 0 0 0 96 80 52 1 0 0 1 1 85 100 100 100 100 100 66 82 88 100 48 2 3 11 90 100 9 5 19 30 100 94 15 22 30 4
23 87 53 1 96 100 12 0 0 0 97 56 81 27 0 0 4 4 99 100 100 100 100 79 5 5 5 98 98 72 18 10 94 100 100 67 5 5 24 100 100 100 6 1
90 8 1 91 96 100 9 6 44 28 47 58 99 100 6 11 18 9 60 100 100 100 99 33 5 5 8 100 100 100 100 100 100 100 100 89 5 5 9 92 67 81 44 93
3 0 6 100 100 57 83 68 96 83 68 93 89 100 100 86 100 100 100 100 100 86 48 10 50 91 100 100 100 100 100 100 90 100 100 88 6 53 34 5 5 94 46 93
96 29 6 43 94 16 100 98 100 100 100 36 0 98 100 100 100 100 100 100 93 67 5 20 100 100 100 100 100 100 100 100 100 100 100 100 90 100 67 5 19 89 48 89
90 100 100 100 97 30 0 23 43 100 30 4 5 100 100 100 100 100 100 100 100 99 62 55 80 100 100 100 100 100 100 100 90 100 100 100 100 100 64 59 50 31 80 93
100 100 91 96 98 98 10 5 5 4 41 14 1 93 100 100 92 100 62 68 28 100 88 29 58 100 73 100 100 100 100 100 92 100 100 100 100 85 100 100 58 42 80 91
100 100 75 96 57 100 9 15 2 34 100 55 20 99 100 100 100 100 100 97 87 80 100 100 100 87 90 100 100 100 100 100 83 100 100 100 100 83 100 100 100 85 5 8
100 100 100 100 100 92 5 90 100 100 100 100 100 100 100 100 100 100 100 100 99 86 96 96 100 92 100 100 100 100 100 100 100 100 100 100 100 79 99 100 100 69 18 38
100 100 100 100 100 100 100 100 100 100 100 100 100 100 100 100 100 100 100 100 85 100 100 100 100 100 100 100 100 100 100 100 100 100 99 100 100 99 97 100 100 82 12 72
55 100 100 100 100 100 100 100 100 100 100 100 100 100 100 100 100 100 100 100 95 100 100 100 100 100 100 100 100 100 100 100 100 100 100 100 100 94 84 96 100 100 56 100
100 100 100 100 100 100 100 100 100 100 100 100 100 100 100 100 100 100 100 100 100 96 100 100 100 100 100 100 100 100 100 100 100 100 100 100 89 59 100 100 100 100 100 100
100 100 100 100 100 100 100 100 100 100 100 100 100 100 100 100 100 100 100 100 100 100 100 100 100 100 100 100 100 100 100 100 100 100 100 100 100 100 100 100 100 100 100 100
100 100 100 100 100 100 100 100 100 100 100 100 100 100 100 100 100 100 100 100 100 100 100 100 100 100 100 100 100 100 100 100 100 100 100 100 100 100 100 100 100 100 100 100
100 100 100 100 100 100 100 100 100 100 100 100 100 100 100 100 100 100 100 100 100 100 100 100 100 100 100 100 100 100 100 100 100 100 100 100 100 100 100 100 100 100 100 100
100 100 100 100 100 100 100 100 100 100 100 100 100 100 100 100 100 100 100 100 100 100 100 100 100 100 100 100 100 100 100 100 100 100 100 100 100 100 100 100 100 100 100 100
100 100 100 100 100 100 100 100 100 100 100 100 100 100 100 100 100 100 100 100 100 100 100 100 100 100 100 100 100 100 100 100 100 100 100 100 100 100 100 100 100 100 100 100
100 100 100 100 100 100 100 100 100 100 100 100 100 100 100 100 100 100 100 100 100 100 61 53 34 98 100 100 100 56 94 80 100 100 100 100 100 100 100 100 100 100 100 100
100 100 100 100 100 100 100 100 100 100 100 100 100 100 100 100 100 100 100 100 100 100 95 100 90 86 100 100 99 74 86 92 100 100 100 100 100 100 100 100 100 100 100 100
100 100 100 100 100 100 100 100 100 100 100 100 100 100 100 100 100 100 100 100 100 100 100 99 95 77 100 100 96 30 68 100 100 100 100 100 100 100 100 100 100 100 100 100
100 100 100 100 100 100 100 100 100 100 100 100 100 100 100 100 100 100 98 95 95 100 100 100 90 52 85 100 91 97 100 100 100 100 100 100 100 100 100 100 100 100 100 100
100 100 100 100 100 100 100 100 99 98 100 100 100 100 100 100 100 100 100 51 12 49 40 22 18 92 94 97 98 100 100 100 100 100 100 100 100 100 100 100 100 100 100 100
100 100 100 100 100 100 100 100 93 58 86 100 100 100 100 100 100 100 81 56 55 73 78 68 94 97 100 100 99 100 98 100 100 100 100 100 100 100 100 100 100 100 100 100
100 100 100 99 99 97 100 100 86 72 98 100 100 100 87 62 87 72 68 73 57 65 72 78 98 92 100 100 100 100 98 98 100 100 100 100 100 100 100 100 100 100 100 100

GFSCGP_prec_cloud_108.txt.gz
Cloud_Cover
0 2 12 0 6 90 100 70 27 0 0 0 0 0 0 0 0 0 0 0 92 38 5 93 100 72 100 87 1 4 5 5 4 42 45 11 64 9 36 26 5 17 23 33
0 2 8 100 100 58 0 94 75 1 0 7 0 0 0 2 0 0 0 0 1 89 100 100 100 100 58 94 1 0 8 33 38 1 13 14 8 15 8 44 27 13 26 28
0 0 40 69 5 100 0 31 100 18 0 63 90 9 0 1 76 0 0 0 0 28 100 100 100 29 15 72 32 0 55 72 91 100 49 12 61 100 100 98 53 70 36 37
1 98 89 100 38 71 0 2 77 90 4 43 93 19 5 1 0 0 0 0 99 39 100 48 29 46 55 29 91 5 57 100 100 100 74 16 14 100 100 100 100 12 59 45
38 1 86 46 4 54 100 100 75 70 0 98 54 99 0 98 2 37 58 99 100 78 58 77 5 16 13 53 100 84 100 100 100 100 100 100 28 61 100 100 100 69 99 99
2 0 4 0 92 100 84 29 78 24 0 41 0 25 99 90 21 16 14 96 100 82 92 5 53 98 84 94 100 100 100 100 100 100 94 100 100 100 100 100 100 61 93 72
6 15 29 100 99 18 5 96 78 70 50 6 95 55 48 24 98 71 41 5 5 61 23 5 5 42 100 100 64 100 100 93 100 100 100 100 100 100 100 100 100 60 68 100
100 100 65 99 88 15 65 55 94 100 92 100 100 36 83 100 100 100 89 99 63 99 84 34 10 100 100 100 100 100 91 100 100 100 100 100 100 54 53 5 100 100 99 100
100 100 22 89 36 100 13 92 100 100 100 96 71 100 100 100 100 100 100 100 100 100 100 100 100 100 100 100 100 50 56 100 100 100 100 100 100 94 7 5 100 100 100 100
100 89 97 93 82 68 56 92 100 100 81 100 100 100 100 100 100 100 100 100 100 100 100 100 100 100 100 100 63 68 52 100 100 100 53 100 100 99 100 73 100 100 100 100
100 100 100 91 70 51 92 100 100 100 100 100 100 100 100 100 100 100 100 100 100 100 100 100 100 100 100 100 97 96 71 100 100 100 100 100 100 100 100 100 100 100 100 100
100 100 100 100 100 100 100 100 100 100 100 100 100 100 100 100 100 100 100 100 100 100 100 100 100 100 100 100 100 100 100 100 100 100 100 100 100 100 100 100 100 100 100 100
97 100 100 100 100 100 100 100 100 100 100 100 100 100 100 100 100 100 100 100 100 100 100 100 100 100 100 100 100 100 100 100 100 100 100 100 100 99 100 100 100 100 100 100
100 100 100 100 100 100 100 100 100 100 100 100 100 100 100 100 100 100 100 100 100 100 100 100 100 100 100 100 100 100 100 100 100 100 100 100 100 100 100 100 100 99 100 100
100 100 100 100 100 100 100 100 100 100 100 100 100 100 100 100 100 100 100 100 100 100 100 100 100 100 100 100 100 100 100 100 100 100 100 100 100 100 100 100 94 100 100 90
100 100 100 100 100 100 100 100 100 100 100 100 100 100 100 100 100 100 100 100 100 100 77 99 100 100 100 100 100 100 100 99 100 100 99 100 100 100 100 100 100 100 100 100
100 100 100 100 100 100 100 100 100 100 100 100 100 100 100 100 100 100 100 100 100 77 58 80 100 100 100 100 100 100 100 100 100 100 100 100 100 100 100 100 100 100 100 100
100 100 100 100 100 100 100 100 100 100 100 100 100 100 100 100 100 100 100 100 100 100 100 100 100 100 100 100 100 100 98 80 99 100 100 100 100 100 100 100 100 100 100 100
100 100 100 100 100 100 100 100 100 100 100 100 100 100 100 100 100 100 100 100 100 100 100 100 100 100 100 100 100 100 100 100 100 100 100 100 100 100 100 100 100 100 100 100
100 100 100 100 100 100 100 100 100 100 100 100 100 100 100 100 100 100 100 100 100 100 99 100 100 100 100 100 100 100 98 100 100 100 100 94 100 100 100 100 100 100 100 100
100 100 100 100 100 99 100 100 100 100 100 100 100 100 100 100 100 100 100 100 93 66 98 96 100 94 100 99 28 83 25 58 76 67 76 73 87 100 100 100 100 100 100 100
100 100 100 100 100 96 100 77 83 100 100 100 100 100 100 100 100 100 100 100 100 99 15 9 16 71 99 90 74 86 80 32 10 56 24 89 94 100 100 100 100 100 100 100
100 100 100 100 100 100 100 100 100 100 100 100 100 100 100 100 100 100 100 100 100 100 100 99 99 100 100 100 95 86 100 84 6 5 11 40 31 100 100 100 100 100 100 100
100 100 100 100 100 100 100 100 100 100 100 100 100 100 100 100 100 100 100 100 100 100 100 100 100 99 99 99 84 100 96 100 88 18 5 5 79 100 100 100 100 100 100 100
100 100 100 100 100 100 100 100 100 100 100 100 100 100 100 100 100 100 100 100 91 78 89 61 59 78 98 99 90 86 100 83 83 76 91 51 24 100 100 100 100 100 100 100
100 100 100 100 100 100 100 100 99 85 86 75 77 86 100 100 100 100 100 100 98 80 6 53 67 49 74 76 86 79 53 70 25 89 91 100 100 98 100 100 100 100 100 100

GFSCGP_prec_cloud_111.txt.gz
Cloud_Cover
0 0 5 0 0 0 5 5 0 0 0 12 5 4 0 0 0 0 0 0 0 89 44 76 80 17 5 20 12 100 5 50 32 91 94 99 80 84 68 26 14 5 8 33
2 0 0 0 0 1 0 0 0 0 0 98 44 60 0 0 0 0 0 0 0 0 100 100 30 5 3 0 0 10 34 17 45 27 6 5 45 93 83 72 90 5 18 25
3 0 0 0 0 0 0 7 30 68 1 33 100 100 0 0 0 0 0 0 0 0 50 100 90 6 4 0 3 14 99 47 100 100 88 26 72 79 99 98 72 45 35 73
3 0 0 0 0 1 5 97 34 5 88 93 100 76 0 1 1 0 23 72 0 0 0 90 100 18 5 0 56 96 99 99 100 100 100 82 92 77 33 51 100 83 90 61
3 0 4 5 0 4 3 5 41 96 100 95 90 86 16 100 10 0 24 92 71 0 0 0 4 88 4 0 15 100 100 100 100 100 100 100 100 100 100 100 71 100 100 75
6 16 3 6 30 3 38 5 57 30 98 98 0 4 95 94 82 100 95 63 25 10 2 8 5 5 0 0 0 58 100 100 100 100 100 100 100 99 100 100 100 100 100 100
12 72 16 83 54 26 3 75 93 100 98 29 1 68 100 75 100 100 100 100 100 100 94 81 89 67 30 29 30 10 100 100 100 100 100 100 100 87 100 95 70 100 100 100
90 4 84 65 49 76 100 100 100 100 100 100 98 97 99 100 100 100 100 100 100 100 100 100 100 100 100 100 97 76 76 100 100 100 100 100 100 100 100 100 80 95 100 100
100 44 48 49 82 30 81 100 100 100 100 100 100 100 100 100 100 100 100 100 100 100 100 100 100 100 100 100 100 100 91 100 100 100 100 100 100 100 100 100 100 100 100 100
100 94 33 61 53 93 100 89 100 100 100 100 100 100 100 100 100 100 100 100 100 100 100 100 100 100 100 100 100 100 100 100 100 100 100 100 100 100 100 100 100 95 67 100
100 100 84 100 100 22 66 43 93 73 99 100 100 100 100 100 100 100 100 100 100 100 100 100 100 100 100 100 100 100 100 100 100 100 100 100 100 100 100 97 100 85 100 100
93 100 100 99 100 100 100 100 100 100 100 100 100 100 100 100 100 100 100 100 100 100 100 100 100 100 100 100 100 100 100 100 100 100 100 100 100 100 100 100 100 100 98 97
100 100 100 100 100 100 100 100 100 100 100 100 100 100 100 100 100 100 100 100 100 100 100 100 100 100 100 100 100 100 100 100 100 100 100 100 100 100 100 100 100 100 100 100
100 100 100 100 100 100 100 100 100 100 100 100 100 100 100 100 100 100 100 100 100 100 100 100 100 100 100 100 100 100 100 100 100 100 100 100 100 100 100 100 100 100 100 100
88 100 100 100 100 100 100 100 100 100 100 100 100 100 100 100 100 100 100 100 100 100 100 100 100 100 100 100 100 100 94 100 100 100 100 100 100 100 100 100 100 100 100 100
100 100 100 100 100 100 100 100 100 100 100 100 100 100 100 100 100 100 100 100 100 100 100 100 100 100 100 100 100 100 100 100 100 100 100 100 100 100 100 100 100 100 100 100
100 100 100 100 100 100 100 100 100 100 100 100 100 100 100 100 100 100 100 100 100 100 100 100 100 100 100 100 100 100 100 100 100 100 98 100 100 100 100 89 100 100 100 100
100 100 100 100 100 100 100 100 100 100 100 100 100 100 100 100 100 100 100 100 100 100 93 100 100 100 100 100 76 88 100 100 100 100 100 100 100 100 100 100 100 100 100 100
100 100 100 100 100 100 100 100 100 100 100 100 100 100 100 100 100 100 100 100 100 100 96 100 100 100 96 100 100 92 100 100 97 94 100 100 100 100 100 100 100 100 100 100
100 100 100 100 100 100 100 100 100 100 100 100 100 100 100 100 100 100 100 100 100 100 100 100 100 100 100 100 100 100 100 100 100 100 100 100 100 100 97 98 100 100 100 100
100 100 100 100 100 100 100 100 100 100 100 100 100 100 100 100 100 100 100 100 96 100 100 100 99 100 100 84 100 100 100 100 100 100 100 100 100 100 100 100 100 99 99 100
100 100 100 100 100 100 95 92 98 100 100 99 96 92 74 90 100 100 97 84 41 10 100 100 100 100 100 98 100 100 100 100 100 27 21 80 99 100 100 100 100 97 90 86
100 100 100 100 100 100 100 100 100 100 98 100 100 100 100 100 100 100 100 96 53 38 88 98 84 72 77 91 98 100 100 99 46 5 7 20 51 80 84 80 43 61 78 98
100 100 100 100 100 100 100 100 92 86 100 100 100 100 100 100 98 84 59 93 98 92 87 72 69 86 99 89 90 100 100 70 68 99 5 5 40 83 91 91 100 89 79 99
100 100 100 100 100 100 100 100 100 97 87 100 72 84 91 88 71 66 74 83 65 70 51 5 80 99 99 77 87 95 98 88 94 57 100 20 5 5 45 92 100 97 100 100
100 100 100 100 100 100 100 100 97 98 100 96 78 93 100 100 99 78 99 96 5 52 46 37 6 37 67 61 69 80 82 96 81 93 93 95 77 10 5 5 52 96 96 96

GFSCGP_prec_cloud_114.txt.gz
Cloud_Cover
0 1 0 0 0 0 0 0 0 0 0 0 0 0 0 0 0 0 0 0 0 1 73 4 74 5 0 0 0 0 44 66 100 100 100 100 100 100 100 65 98 100 100 68
0 0 0 5 10 11 0 0 0 0 0 1 3 2 0 0 0 0 0 0 0 0 4 4 98 71 5 2 0 0 32 75 100 100 100 100 100 100 100 100 100 100 82 52
5 4 5 3 0 0 0 0 0 1 0 3 8 0 0 0 0 0 0 0 0 0 0 0 97 100 5 5 5 5 62 34 94 100 100 100 100 100 100 100 100 98 56 58
3 25 3 0 0 0 0 0 0 4 64 72 80 76 61 26 0 76 54 10 7 0 0 0 9 32 5 6 15 87 79 94 98 100 100 100 100 100 100 100 100 94 94 78
39 0 0 3 0 0 0 0 0 5 5 35 55 83 0 28 100 95 100 100 78 60 54 49 35 99 9 45 60 100 84 84 100 100 100 100 100 100 100 100 100 100 99 100
3 5 2 2 4 5 24 4 10 63 100 95 0 32 99 100 100 100 100 100 100 100 99 100 99 74 100 39 100 100 96 82 65 83 100 100 100 100 100 100 85 100 99 99
4 0 3 3 3 5 74 92 79 100 100 100 67 20 74 100 100 100 100 100 100 100 100 100 100 100 100 100 100 100 100 96 90 100 100 100 100 100 100 100 94 100 100 100
82 8 4 72 10 85 84 45 100 99 100 100 100 100 100 100 100 100 100 100 100 100 100 100 100 100 100 100 100 100 100 99 84 100 100 100 100 100 100 100 100 100 97 100
80 14 0 80 44 32 12 12 87 100 100 100 100 100 100 100 100 100 100 100 100 100 100 100 100 100 100 100 100 100 100 100 100 100 90 91 100 100 100 100 100 100 100 100
70 100 1 0 5 5 11 18 95 100 100 100 100 100 100 100 100 100 100 100 100 100 100 100 100 100 100 100 100 100 100 100 100 100 100 100 100 100 100 100 100 100 100 100
82 100 25 7 14 5 52 79 92 100 93 100 100 100 100 100 100 100 100 100 100 100 100 100 100 100 100 100 100 100 100 100 95 98 100 100 100 100 100 100 100 100 100 100
36 100 98 94 99 98 100 100 100 100 100 100 100 100 100 100 100 100 100 100 100 100 100 100 100 100 99 100 100 100 100 100 100 100 100 100 100 100 100 100 100 100 100 100
100 95 79 100 100 100 100 100 100 100 100 100 100 100 100 100 100 100 100 100 100 100 100 100 100 100 100 100 100 100 100 100 100 100 100 100 100 100 100 100 100 100 100 100
100 100 99 100 100 100 100 100 100 100 100 100 100 100 100 100 100 100 100 100 100 100 100 100 100 100 100 100 100 100 100 100 100 100 100 100 100 100 100 100 100 100 100 100
100 100 100 100 100 100 100 100 100 100 96 100 100 100 100 100 100 100 100 100 100 100 100 100 100 100 100 100 100 100 100 100 100 100 100 100 100 100 100 100 100 100 100 100
100 100 100 100 100 100 100 100 100 100 100 100 100 100 100 100 100 100 100 100 100 100 100 100 100 100 100 100 100 100 100 100 100 97 100 100 100 100 100 100 100 100 100 100
100 100 100 100 100 100 100 100 100 100 100 100 100 100 100 100 100 100 100 100 100 100 100 100 100 100 100 100 100 100 100 100 100 100 100 94 100 100 100 100 100 100 100 100
99 100 100 100 100 100 100 100 100 100 100 100 100 100 100 100 100 100 100 100 100 100 100 100 100 100 100 100 100 100 100 100 100 100 100 100 93 99 99 100 100 100 100 100
100 100 100 100 100 100 100 100 100 100 100 100 100 100 100 100 100 100 100 100 100 100 100 100 100 100 100 100 100 100 100 100 100 100 100 100 100 100 100 99 100 100 100 100
100 100 100 100 100 100 100 100 100 95 99 100 100 100 100 100 100 100 100 100 99 96 100 100 100 100 100 100 100 87 42 48 77 100 100 100 100 100 100 99 100 100 100 100
100 100 100 100 100 100 100 100 100 100 90 99 100 94 100 99 100 96 89 84 17 77 97 96 98 99 100 100 100 100 100 99 100 100 100 100 100 100 100 100 100 100 100 100
96 100 100 100 100 100 100 100 100 100 100 36 75 98 99 89 95 89 78 70 44 96 37 52 68 100 100 100 97 100 100 100 100 100 100 100 100 100 100 100 100 100 100 100
100 100 100 100 100 100 100 100 100 100 100 100 89 38 39 20 58 22 100 96 100 82 99 52 26 56 73 99 98 100 100 97 100 27 99 100 100 100 100 100 100 100 100 100
100 100 100 100 100 100 100 100 100 100 100 100 100 90 71 65 59 59 47 64 40 17 12 68 80 83 93 76 99 100 100 97 88 100 68 5 22 78 100 100 100 100 100 100
100 100 100 100 100 100 100 100 100 100 100 100 100 100 100 70 41 69 84 78 64 27 100 73 66 97 88 65 73 100 98 99 90 100 100 84 5 5 31 80 100 100 100 100
100 100 100 100 100 100 100 100 100 100 100 100 100 100 63 39 69 44 97 100 100 100 98 31 6 6 49 48 8 5 15 97 100 99 99 95 93 5 5 5 8 76 100 100

GFSCGP_prec_cloud_117.txt.gz
Cloud_Cover
5 5 4 0 0 0 0 0 0 0 0 0 0 0 0 0 0 0 0 0 0 0 0 0 0 3 0 0 0 0 13 30 90 38 61 100 100 100 99 75 45 100 100 100
5 5 0 0 0 0 0 0 0 0 0 0 0 0 0 0 0 0 0 0 0 0 0 0 0 0 0 0 0 20 61 53 66 82 15 52 45 76 95 84 100 100 80 100
5 0 0 0 1 4 0 0 0 0 0 0 0 0 0 0 0 0 0 0 0 0 0 0 0 4 0 2 0 88 100 81 64 99 96 98 87 95 100 100 100 100 46 84
5 5 5 72 33 0 0 0 0 0 2 2 17 64 0 3 15 74 100 99 99 98 94 67 53 81 64 63 83 5 100 100 100 100 76 100 100 100 100 100 100 100 100 95
71 98 71 5 0 0 0 0 0 0 5 22 96 94 4 5 100 100 100 100 100 100 100 100 100 100 100 100 100 100 100 100 100 100 100 100 100 100 100 100 100 100 100 100
68 5 5 4 5 2 0 2 2 3 72 90 96 100 100 83 100 100 100 100 100 100 100 100 100 100 100 100 100 100 100 100 100 100 100 100 100 100 100 100 100 100 100 100
89 60 0 5 5 5 5 5 12 3 38 90 100 100 100 100 100 100 100 100 100 100 100 100 100 100 100 100 100 100 100 100 100 100 100 100 100 100 100 99 100 100 100 100
93 10 0 1 21 57 5 33 54 100 50 100 100 100 100 100 100 100 100 100 100 100 100 100 100 100 100 100 100 100 100 100 100 100 100 100 100 100 100 100 100 100 100 100
77 19 0 5 5 8 36 74 92 100 59 97 100 100 100 100 100 100 100 100 100 100 100 100 100 100 100 100 100 100 100 100 100 100 100 95 100 100 100 100 100 100 100 100
5 88 0 0 0 4 83 15 93 95 99 83 100 100 100 100 100 100 100 100 100 100 100 100 100 100 100 100 100 100 100 100 100 100 100 100 100 100 100 100 100 100 100 100
10 80 8 5 4 61 66 90 98 100 99 96 99 100 100 100 100 100 100 100 100 100 100 100 100 100 100 100 100 100 100 100 100 100 100 100 100 100 100 100 100 100 100 100
57 94 100 7 5 100 95 100 100 100 90 92 100 100 100 100 100 100 100 100 100 100 100 100 100 100 100 100 100 100 100 100 100 100 100 100 100 100 100 100 100 100 100 100
35 95 92 5 32 100 100 100 100 100 100 100 100 100 100 100 100 100 100 100 100 100 100 100 100 100 100 100 100 100 100 100 100 100 100 100 100 100 100 100 100 100 100 100
8 75 98 98 100 100 100 100 100 100 100 100 100 100 100 100 100 100 100 100 100 100 100 100 100 100 100 100 100 100 100 100 100 100 100 100 100 100 100 100 100 100 100 100
35 100 92 100 100 100 100 100 100 100 100 100 100 100 100 100 100 100 100 100 100 100 100 100 100 100 100 100 100 100 100 100 99 96 100 100 100 100 100 100 100 100 100 100
51 80 100 98 100 100 100 100 100 100 100 100 100 100 100 100 100 100 100 100 100 100 100 100 100 100 100 100 100 100 100 100 100 100 100 100 93 100 100 100 100 100 100 100
97 100 65 73 100 100 100 100 100 100 100 100 100 100 100 100 100 100 100 100 100 100 100 100 100 100 100 100 100 100 100 100 100 100 100 100 100 90 100 100 100 100 100 100
91 100 93 66 100 100 100 100 100 100 100 100 100 100 100 100 100 100 100 100 100 100 100 100 100 100 100 100 100 100 100 100 100 100 100 100 100 100 100 100 100 100 100 100
83 100 56 97 100 100 100 100 100 100 100 100 100 100 100 100 100 100 100 100 100 100 100 100 100 100 100 100 100 100 100 100 100 100 100 100 100 100 100 100 100 100 100 100
52 65 94 88 100 100 100 100 100 100 100 100 100 100 100 100 100 100 100 100 100 100 100 100 100 100 100 100 100 100 100 100 100 100 100 100 100 100 92 100 100 100 100 100
8 27 88 98 100 100 100 100 100 100 82 100 100 99 100 100 100 100 100 100 100 100 100 100 100 100 100 100 100 100 100 100 100 100 100 100 100 100 100 100 100 100 100 100
34 91 98 98 100 100 100 100 100 100 94 94 85 95 95 100 100 100 100 100 100 100 100 100 91 100 100 100 100 100 100 100 100 100 93 95 99 100 100 100 100 100 100 100
78 29 89 100 100 100 100 100 100 100 100 98 80 100 100 98 87 97 100 100 100 100 100 100 93 88 98 100 100 99 100 100 100 87 60 56 90 92 97 100 100 100 99 100
100 100 100 100 100 100 100 100 100 100 100 100 95 99 98 97 97 99 100 98 97 94 98 75 88 94 96 76 72 97 95 100 92 96 93 76 69 87 94 100 100 100 100 100
92 100 100 100 100 100 100 100 100 100 100 100 100 100 100 95 98 100 100 99 77 56 40 21 47 60 73 24 68 83 100 98 100 99 100 98 87 72 40 83 99 100 100 100
74 100 100 100 100 100 100 100 100 100 100 100 100 100 100 100 100 96 100 99 95 14 10 7 42 75 56 5 55 73 93 99 92 72 85 80 99 98 56 5 16 58 99 100

GFSCGP_prec_cloud_120.txt.gz
Cloud_Cover
0 0 0 0 0 0 0 0 0 0 0 0 0 0 0 0 0 5 5 0 0 0 0 0 0 0 1 1 0 4 56 100 100 100 56 100 100 5 0 0 0 17 100 100
0 0 0 0 0 0 0 0 0 0 0 0 0 0 0 0 3 46 4 8 0 0 0 0 1 0 0 0 0 0 4 5 99 100 100 89 5 0 0 0 1 5 92 100
0 0 0 0 0 0 0 0 0 0 0 0 0 0 5 44 20 6 17 64 56 61 38 14 0 2 29 0 0 0 2 5 28 100 99 82 12 0 3 5 6 6 47 100
5 0 0 0 1 3 0 0 0 0 0 0 2 11 81 59 67 5 65 75 100 100 100 100 100 100 99 90 69 9 70 29 17 97 98 90 7 3 52 6 12 20 88 16
5 0 0 1 0 0 0 0 0 2 5 9 4 19 6 54 96 9 80 98 100 100 100 100 100 100 100 100 100 98 100 100 100 100 98 14 58 8 42 34 99 82 100 36
3 3 5 3 0 0 2 4 12 5 5 41 10 48 75 74 100 84 100 100 100 100 100 100 100 100 100 100 100 100 100 100 100 100 100 99 100 100 100 100 100 100 100 88
5 5 5 4 4 4 5 92 39 100 100 47 14 30 100 95 97 100 100 100 100 100 100 100 100 100 100 100 100 100 100 100 100 100 100 100 100 100 100 100 100 100 100 100
22 51 6 5 1 5 8 73 96 100 98 93 73 96 100 82 80 100 100 100 100 100 100 100 100 100 100 100 100 100 100 100 100 100 100 100 100 100 100 100 100 100 100 100
70 91 30 5 0 8 72 97 87 73 94 100 98 100 98 96 88 96 100 100 100 100 100 100 100 100 100 100 100 100 100 100 100 100 98 99 100 100 100 100 100 100 100 98
73 100 66 4 3 55 18 50 100 94 94 92 100 97 100 100 100 100 100 100 100 100 100 100 100 100 100 100 100 100 100 100 100 100 100 100 96 100 100 100 100 100 100 100
98 100 65 2 60 89 99 96 100 86 97 100 100 100 100 100 100 100 100 100 100 100 100 100 100 100 100 100 100 100 100 100 100 100 100 100 100 100 100 100 100 100 100 100
93 98 49 3 41 5 5 99 100 100 100 100 100 100 100 100 100 100 100 100 100 100 100 100 100 100 100 100 100 100 100 100 100 100 100 100 100 100 100 100 100 100 98 100
100 98 37 96 88 71 17 97 100 100 100 100 100 100 100 100 100 100 100 100 100 100 100 100 100 100 100 100 100 100 100 100 100 100 99 100 100 100 100 100 100 100 100 100
100 100 42 97 73 65 95 100 100 100 100 100 100 100 100 99 100 99 100 100 100 100 100 100 100 100 100 100 100 100 100 100 100 100 100 100 100 100 100 100 100 100 100 100
100 100 83 80 91 100 81 97 99 100 100 100 100 98 100 100 100 100 100 100 100 100 100 100 100 100 100 100 100 100 100 94 100 100 100 100 100 100 100 100 100 100 100 100
100 100 100 64 76 100 37 87 96 100 100 100 100 100 100 100 100 100 100 100 100 100 100 100 100 100 100 100 100 100 100 100 100 100 100 100 100 100 100 100 100 100 100 100
100 85 100 100 88 100 98 100 92 98 100 100 100 100 100 100 100 100 100 100 100 100 100 100 100 100 100 100 100 100 100 100 100 100 100 100 100 100 99 100 100 100 100 92
100 100 100 92 92 98 100 98 100 91 100 100 100 100 100 100 100 100 100 100 100 100 100 100 100 100 100 100 100 100 100 100 100 100 100 100 100 100 100 100 100 100 100 100
95 94 97 90 100 92 100 100 100 100 100 100 100 100 100 100 100 100 100 100 100 100 100 100 100 100 100 100 100 100 100 100 100 100 100 100 100 100 100 100 100 100 100 100
90 84 93 95 100 100 100 100 98 100 100 100 100 100 100 100 100 100 100 100 100 100 100 100 100 100 100 94 100 100 94 100 100 100 100 100 100 100 100 100 100 100 100 100
100 100 100 100 96 98 100 100 100 100 100 99 100 97 100 100 99 100 100 100 100 100 100 100 100 100 100 100 100 100 100 100 100 100 100 100 100 100 100 100 100 100 100 100
96 91 100 100 100 100 95 100 100 100 100 99 90 84 100 100 100 100 100 100 100 100 100 95 100 100 100 100 100 100 100 100 100 100 100 100 100 100 100 100 100 100 100 100
95 88 100 98 99 99 100 100 100 100 100 100 100 100 88 100 100 100 100 100 100 100 100 100 100 100 100 99 76 77 90 100 100 86 78 92 100 100 100 100 100 100 100 100
95 87 99 91 100 100 100 100 100 100 100 100 100 100 100 100 100 100 98 95 99 95 84 100 100 100 100 100 41 20 74 62 10 5 5 5 6 5 25 5 77 96 98 100
98 99 100 100 100 100 100 100 100 100 100 100 100 100 100 98 100 100 99 61 72 73 63 82 98 76 65 86 100 68 75 91 59 12 59 12 13 5 5 13 27 66 99 99
100 100 100 100 100 100 100 100 100 100 100 100 100 100 100 100 100 96 96 97 88 60 40 5 5 5 5 12 21 63 75 53 5 9 5 32 66 5 5 5 5 34 9 73

GFSCGP_prec_cloud_123.txt.gz
Cloud_Cover
5 5 1 0 0 0 0 0 0 0 0 0 0 0 0 0 19 9 0 0 0 0 1 2 0 0 0 0 4 1 9 81 100 100 100 100 100 100 100 100 78 20 29 100
5 3 1 0 0 0 0 0 0 0 0 0 0 0 0 2 5 20 5 5 5 6 7 6 6 15 0 0 0 0 0 0 0 82 99 99 100 100 100 100 66 5 70 90
5 1 5 0 0 0 0 0 0 0 0 0 2 0 100 51 17 3 7 5 5 44 97 63 84 65 93 69 22 0 0 0 0 0 100 20 100 97 100 100 74 99 23 59
5 5 5 1 5 1 0 0 0 0 0 0 1 1 39 6 5 50 94 5 60 59 90 100 100 100 100 99 80 1 2 0 0 0 47 98 98 5 68 100 88 8 5 94
73 5 5 17 55 5 3 0 0 0 1 8 0 38 95 5 11 86 98 91 98 100 100 99 100 86 100 100 100 100 97 100 70 64 44 92 84 55 5 5 5 1 1 34
32 5 5 62 78 39 1 0 0 4 77 5 79 71 55 45 98 89 90 99 100 100 100 100 92 66 100 99 100 100 100 100 100 100 21 61 33 100 90 64 100 98 54 46
100 42 96 98 90 5 5 5 4 6 8 16 100 86 45 84 100 100 100 100 100 100 100 100 100 99 100 100 100 100 100 100 100 100 100 83 77 100 100 100 100 100 100 100
100 100 100 67 64 61 6 49 72 69 5 4 4 81 98 67 71 99 100 100 97 100 100 100 100 100 100 100 100 100 100 100 100 100 100 100 100 100 100 100 100 100 100 100
100 100 100 7 12 5 56 54 80 57 59 84 82 80 87 91 91 100 100 100 100 99 100 100 100 100 100 100 100 100 100 100 100 100 100 100 100 100 100 100 100 100 100 100
100 100 100 100 17 7 15 63 85 100 97 98 95 98 94 100 100 100 99 100 100 100 100 100 100 100 100 100 100 100 100 100 100 100 100 100 100 100 100 100 100 100 100 100
100 100 100 99 39 46 93 84 94 85 94 100 95 100 100 100 100 100 100 100 100 100 100 100 100 100 100 100 100 100 100 100 100 100 100 100 100 100 100 100 100 100 100 100
100 100 100 51 59 5 5 94 74 100 99 85 100 100 100 100 100 100 100 100 94 97 100 100 100 100 100 100 100 100 100 100 100 100 100 100 100 100 100 100 100 100 100 100
100 100 100 100 100 96 68 42 10 86 100 100 98 100 100 100 100 100 100 100 100 100 100 100 100 100 100 100 100 100 100 100 100 99 100 100 100 100 100 100 100 100 100 100
100 100 100 100 100 14 18 26 74 100 100 100 100 100 100 100 100 100 100 100 100 100 100 100 100 100 100 100 100 100 100 100 100 100 100 100 100 100 100 100 100 100 100 100
100 100 100 100 98 60 82 66 55 100 100 92 100 100 100 100 100 98 100 100 100 100 100 100 100 100 100 100 100 100 100 100 100 100 100 100 100 100 100 100 100 100 100 100
100 100 100 100 99 100 100 44 81 100 100 86 100 100 100 100 100 100 100 89 94 100 100 100 100 100 100 100 100 100 100 100 100 100 100 100 82 98 76 89 100 99 100 100
100 100 100 100 90 85 100 48 13 72 95 94 100 100 100 100 100 100 100 99 99 100 100 100 100 100 100 100 100 100 100 100 100 100 100 100 100 100 100 100 100 100 100 100
100 100 100 100 100 91 88 55 76 74 93 100 82 100 100 100 100 99 100 100 100 100 100 100 100 100 100 100 100 100 99 92 100 100 100 100 100 100 100 100 100 100 100 100
100 100 100 100 99 96 100 90 73 96 87 100 100 100 100 96 100 99 100 100 100 100 100 100 100 100 100 100 100 100 100 100 100 100 100 100 100 100 100 100 100 100 100 100
100 100 100 100 100 100 100 100 88 100 100 98 100 100 100 100 100 94 100 100 100 100 100 100 100 100 100 100 100 100 100 100 100 100 100 100 100 100 100 100 100 100 100 100
100 100 100 100 73 91 100 100 83 100 94 66 100 100 100 100 98 100 91 93 100 100 94 100 100 100 100 100 100 100 100 100 100 100 100 100 100 100 100 100 100 100 100 100
100 100 100 99 88 100 95 100 98 97 100 100 100 100 100 99 100 100 100 98 94 100 100 100 96 100 100 100 100 100 100 100 100 100 100 100 100 100 100 100 100 100 100 100
100 100 98 48 96 95 100 100 86 100 100 100 100 100 100 100 99 100 100 96 76 43 96 100 100 100 100 100 100 90 100 100 100 99 99 95 100 100 100 100 100 100 100 100
100 92 90 80 100 100 98 100 100 100 100 100 100 100 100 100 100 96 97 100 62 98 70 52 73 64 94 100 100 100 98 96 57 62 50 11 10 14 24 94 100 100 100 100
100 98 98 97 100 93 100 100 100 100 100 100 100 100 100 100 100 100 44 61 88 98 76 86 90 73 55 97 100 100 100 100 100 100 90 53 66 76 26 24 6 56 80 80
100 99 98 99 94 99 100 100 100 100 100 100 100 100 100 100 100 100 100 100 100 100 100 72 76 70 68 54 45 16 54 100 93 82 94 100 100 100 64 38 79 85 38 6

GFSCGP_prec_cloud_126.txt.gz
Cloud_Cover
22 33 0 1 0 0 5 0 0 0 0 0 0 0 0 0 0 0 0 0 0 0 0 0 0 0 0 0 0 0 0 0 0 59 14 100 100 18 100 100 100 100 99 9
58 94 46 0 0 0 0 0 0 0 0 0 0 0 0 21 13 0 0 0 0 0 2 5 5 5 5 0 0 0 0 0 0 0 5 3 58 94 100 100 100 100 100 100
100 100 100 96 65 2 5 21 0 0 0 3 0 0 0 60 3 1 2 5 5 5 5 5 9 57 35 13 2 29 0 0 0 0 0 15 3 11 87 100 100 100 100 100
100 100 100 100 100 100 100 2 1 5 0 0 5 1 0 69 44 4 5 5 5 5 5 18 40 100 100 100 100 5 98 0 0 0 0 0 5 100 56 100 100 100 100 100
100 100 100 100 100 100 28 81 90 5 0 2 0 72 98 57 82 99 5 42 25 7 22 84 100 98 100 100 100 99 83 16 4 3 3 65 13 76 100 96 100 94 100 99
49 100 100 100 100 100 73 40 7 73 5 5 21 81 67 88 100 100 22 25 15 99 97 100 100 72 68 94 82 96 100 100 100 100 98 34 36 22 100 86 100 8 70 99
23 86 99 100 100 94 5 13 36 100 65 2 31 88 19 78 44 74 96 79 100 81 100 100 96 93 95 98 97 100 100 100 100 100 100 100 70 100 100 100 100 79 100 100
97 13 100 100 100 100 100 100 58 5 5 0 0 5 77 78 34 68 73 100 94 100 100 79 98 100 100 100 100 100 100 100 100 100 100 100 98 100 100 100 100 92 98 100
80 98 50 83 100 100 100 100 98 5 5 11 0 54 100 77 22 63 96 100 100 100 99 100 100 100 100 100 100 100 100 100 100 100 100 100 100 100 100 100 100 100 100 100
87 98 100 100 100 100 100 100 86 52 48 15 23 48 76 30 96 100 100 100 100 64 68 79 100 100 97 100 100 100 100 100 100 100 100 100 100 100 100 100 100 100 100 100
100 100 100 100 100 100 100 100 95 36 43 95 82 78 100 98 100 100 100 100 100 100 100 100 97 100 100 100 100 100 100 100 100 100 100 100 100 100 100 100 100 100 100 100
100 100 100 100 100 100 100 100 62 65 58 43 86 69 99 100 100 100 100 100 100 100 100 100 100 100 100 100 100 100 100 100 100 100 100 100 100 100 100 100 100 100 100 100
100 100 100 100 100 100 37 100 100 100 22 51 83 43 97 100 100 100 100 92 77 70 100 100 100 100 100 100 100 100 100 100 100 100 100 84 100 100 100 100 100 100 100 100
100 100 100 100 100 100 100 100 100 93 52 43 100 95 100 100 100 100 100 100 63 75 99 100 100 100 100 100 100 100 100 100 100 100 100 100 100 100 100 100 100 100 100 100
100 100 100 100 100 100 100 100 100 55 71 91 73 84 100 100 100 100 99 100 100 100 100 100 100 100 100 100 100 100 100 100 100 100 100 100 100 100 100 100 100 100 100 100
100 100 100 100 100 100 100 100 94 99 21 60 33 71 100 100 100 99 100 100 100 99 96 100 100 100 100 100 100 100 100 100 100 100 100 100 100 100 100 100 100 100 100 100
100 100 100 100 100 100 100 100 100 76 51 61 93 58 62 100 100 99 96 100 100 99 98 71 100 100 100 100 100 100 100 100 100 100 100 100 100 100 100 100 100 100 100 100
100 100 100 100 100 100 100 100 50 96 95 37 5 14 68 69 100 100 100 98 100 100 98 90 34 100 100 100 100 100 100 100 100 100 100 100 100 100 100 100 100 100 100 100
100 100 100 100 100 100 100 96 100 100 100 19 56 87 39 84 96 99 100 100 100 100 100 100 98 82 100 100 100 100 100 100 100 100 95 100 100 100 100 100 100 100 100 100
100 100 100 100 100 100 100 100 100 100 97 7 73 100 90 99 100 100 99 100 94 100 100 100 100 90 97 31 99 100 100 100 100 100 100 100 100 100 100 100 100 100 100 100
100 100 100 100 100 100 100 100 100 96 89 89 100 100 100 100 100 100 100 99 63 100 100 100 100 100 100 100 100 88 99 96 100 100 100 100 100 100 100 66 84 100 75 27
100 100 100 100 100 100 100 100 100 80 86 100 91 100 100 100 100 100 100 95 100 62 100 100 100 100 100 100 100 100 100 100 86 100 100 100 100 100 94 82 100 100 100 96
100 100 100 100 100 100 100 100 91 100 77 82 100 100 100 100 100 100 100 94 64 86 93 98 100 100 100 100 100 100 100 100 100 100 100 100 100 100 100 100 100 100 100 100
100 100 100 100 100 99 100 100 100 100 99 100 100 100 100 100 100 100 100 99 88 86 65 99 39 86 100 100 100 100 100 100 100 100 100 100 95 100 100 100 100 100 100 100
100 100 100 100 96 100 100 100 100 100 100 100 100 100 100 100 100 100 100 100 100 89 93 92 99 98 73 10 45 100 100 100 100 100 100 100 100 100 92 88 29 8 55 81
100 100 100 92 11 68 94 100 94 94 100 100 100 100 100 100 100 100 100 100 100 100 100 94 100 92 62 62 7 5 5 10 39 35 87 100 100 100 100 94 100 65 18 8

GFSCGP_prec_cloud_129.txt.gz
Cloud_Cover
5 0 75 62 0 0 21 84 52 100 100 69 4 86 57 0 0 0 0 0 0 0 0 0 0 0 0 0 0 0 5 0 0 0 0 0 0 0 22 100 46 100 100 99
19 3 70 5 44 33 5 5 32 5 28 77 94 42 0 1 0 0 0 0 0 0 0 1 5 5 0 0 0 4 5 16 0 0 0 0 0 0 0 34 88 92 100 100
100 100 98 56 11 100 87 50 5 47 100 93 14 46 8 0 0 0 0 0 0 3 5 5 5 5 5 5 5 5 5 56 5 1 0 0 0 0 0 0 81 69 100 100
100 100 100 100 97 49 5 5 0 3 28 48 100 2 5 4 2 1 5 61 90 23 5 5 5 5 5 5 5 6 31 76 20 11 83 66 65 32 0 0 3 93 78 100
58 100 83 76 100 100 82 6 33 5 5 15 100 26 5 96 34 5 5 46 97 54 5 6 5 5 5 9 16 35 100 100 100 74 25 100 100 100 16 0 6 100 100 100
100 100 89 100 99 100 100 100 90 97 5 15 100 85 6 82 8 5 5 5 5 20 90 94 5 7 25 10 54 100 100 100 96 100 53 100 100 86 4 0 1 51 100 100
23 74 59 29 84 100 100 100 100 69 74 100 100 74 26 5 5 5 6 10 58 100 96 35 49 69 94 58 100 100 100 100 100 100 100 100 100 100 16 3 0 69 100 100
5 2 20 97 60 100 100 100 100 100 60 100 100 77 42 5 5 55 100 100 84 99 12 52 47 72 89 100 100 100 100 100 100 100 100 100 100 99 35 20 11 75 100 100
100 98 100 100 88 100 100 98 80 100 100 100 100 70 87 25 5 82 96 86 100 82 74 90 67 52 98 100 100 100 100 100 100 100 100 100 100 100 100 100 83 96 100 100
54 52 21 6 79 88 100 100 100 100 100 100 100 67 52 59 76 100 100 100 100 99 100 68 58 94 99 100 100 100 100 100 100 100 100 100 100 100 100 100 100 100 100 100
99 73 98 98 100 100 100 100 100 100 100 100 80 48 100 74 26 70 100 100 98 88 100 78 97 100 84 100 100 100 100 100 100 100 100 100 100 100 100 100 100 100 100 100
100 100 100 100 100 100 100 100 100 100 100 100 76 95 81 70 72 99 100 100 87 89 99 100 100 98 100 100 100 100 100 100 100 100 100 100 100 100 100 100 100 100 100 100
100 65 79 100 100 100 100 100 100 100 100 29 69 100 76 95 92 100 100 54 14 21 37 72 99 74 100 100 100 100 100 100 100 100 100 100 100 100 100 100 100 100 100 100
100 98 100 100 100 100 100 100 100 100 100 100 100 99 94 100 100 100 100 84 56 98 100 91 97 100 98 100 100 100 100 100 100 100 100 100 100 100 100 100 100 100 100 100
100 100 100 100 100 100 100 100 100 100 100 100 100 100 96 100 100 100 98 21 30 73 100 100 100 100 99 100 100 100 99 100 100 100 100 100 100 100 100 100 100 100 100 100
100 99 100 100 100 100 100 100 100 100 69 100 100 100 92 99 85 99 41 61 51 99 100 100 100 100 100 100 100 100 100 100 100 100 100 100 100 100 100 100 100 100 100 100
100 100 100 100 100 100 100 100 100 100 82 100 100 100 100 100 83 100 97 99 79 96 100 100 100 100 100 100 100 100 100 100 100 100 100 100 100 100 100 100 100 100 100 100
100 100 100 100 100 99 100 100 100 100 100 100 100 100 100 22 96 100 94 99 100 96 100 100 100 100 100 100 100 100 100 100 100 100 100 100 100 100 100 100 100 100 100 100
100 100 100 100 100 100 100 100 100 100 100 100 100 100 100 81 86 100 100 100 100 100 100 100 100 100 100 100 100 100 100 100 100 100 100 100 100 100 100 100 100 100 100 100
100 100 100 100 100 100 100 100 100 100 100 100 100 100 94 100 100 98 100 100 100 100 100 100 100 100 100 100 100 100 100 100 100 100 100 100 100 100 100 100 100 100 100 100
100 100 100 100 100 100 100 100 100 100 100 100 100 100 52 69 92 100 100 100 100 100 100 100 100 100 100 100 93 100 100 100 100 100 100 100 100 100 97 100 99 100 100 100
100 100 100 100 100 100 100 100 100 100 100 100 100 98 99 100 100 100 100 100 100 100 100 100 100 100 100 100 100 70 85 100 100 100 100 100 100 77 96 100 100 100 83 100
100 100 100 100 100 100 100 100 100 100 100 100 51 86 98 100 100 100 100 100 100 100 100 100 100 99 100 100 100 100 100 100 100 100 100 100 100 100 88 71 69 100 99 69
100 100 100 100 100 100 100 100 100 100 100 56 91 100 100 100 100 100 100 100 100 100 100 100 100 75 100 100 100 100 100 100 100 100 100 100 100 100 100 98 99 100 100 100
100 100 100 100 100 100 100 100 100 100 100 81 91 100 100 100 100 100 100 100 100 100 100 100 100 96 100 99 93 98 100 100 100 100 100 90 98 100 100 100 100 99 83 84
100 100 100 100 100 100 100 100 100 100 100 83 88 100 100 100 100 100 100 100 100 100 100 100 100 100 100 100 100 95 52 100 100 100 100 96 37 56 19 5 11 86 97 96

GFSCGP_prec_cloud_132.txt.gz
Cloud_Cover
30 56 100 100 19 5 24 5 5 5 0 0 5 5 0 0 0 0 5 5 1 0 0 0 0 0 0 0 0 4 5 5 5 5 5 0 0 0 0 0 32 100 100 82
100 92 100 100 99 10 62 99 100 100 60 54 72 2 0 0 0 3 1 4 0 2 5 5 5 5 5 5 5 5 5 5 5 5 10 7 9 0 0 0 0 1 99 84
100 100 100 100 100 98 100 89 100 48 99 97 13 4 5 0 0 5 24 5 5 5 5 5 5 5 5 5 5 5 12 87 96 76 87 89 87 68 2 0 0 0 57 100
99 100 100 100 100 90 8 58 17 7 11 46 98 26 5 35 6 10 5 5 5 5 5 5 5 5 5 5 5 55 100 100 100 100 100 100 100 100 78 33 2 0 5 74
100 100 99 100 100 36 48 54 48 5 99 100 100 78 92 94 98 36 5 5 5 5 5 5 5 5 11 8 59 100 100 100 100 100 100 100 100 100 100 100 96 0 0 28
100 100 91 9 77 100 40 44 5 5 76 2 87 100 31 100 100 63 31 16 5 5 5 5 5 22 90 87 100 100 100 100 100 100 100 100 100 100 100 100 58 0 0 0
65 90 90 5 2 6 98 82 12 34 96 69 84 100 98 95 95 100 100 6 22 5 13 11 15 80 100 100 100 100 100 98 100 100 100 100 100 100 100 100 100 87 0 0
96 100 96 85 35 64 100 100 98 100 100 100 100 100 99 100 100 100 99 44 88 6 90 46 22 56 100 100 100 100 100 100 100 100 100 100 100 100 100 100 68 20 12 5
13 4 44 100 99 100 100 100 100 100 100 98 96 100 100 100 100 100 40 100 69 61 43 66 52 44 100 78 100 100 100 100 100 100 100 100 100 100 100 100 100 100 44 41
3 0 0 100 100 91 100 100 95 82 67 72 100 100 100 100 100 59 100 100 8 5 7 15 66 66 95 100 100 100 100 100 100 100 100 100 100 100 100 100 100 100 100 100
31 5 0 76 99 96 98 55 35 95 100 100 100 100 100 100 99 41 100 100 7 6 11 13 50 83 100 83 90 100 100 100 96 100 100 100 100 100 100 100 100 100 100 100
5 40 40 100 100 77 100 100 100 100 100 100 100 100 100 100 35 97 100 92 5 5 5 5 33 96 100 62 100 61 99 100 100 100 100 100 100 100 100 100 100 100 100 100
19 68 39 100 100 100 100 91 100 100 100 100 100 100 100 92 67 100 100 66 5 5 5 22 55 91 61 100 100 100 100 99 100 100 100 100 100 100 100 100 100 100 100 100
27 43 63 100 100 100 100 100 100 100 100 100 100 100 100 78 100 100 100 29 5 5 5 15 57 96 95 99 97 99 61 100 100 100 100 100 100 100 100 100 100 100 100 100
42 16 85 100 100 100 100 93 100 100 100 100 100 100 100 100 100 100 100 81 16 60 88 95 5 100 100 98 96 100 99 100 99 100 100 100 100 100 100 100 100 100 100 100
5 8 17 100 100 100 100 96 100 100 100 100 100 100 100 100 100 100 100 100 70 5 100 100 65 96 100 69 100 100 100 100 100 100 100 100 100 100 100 100 100 100 100 100
46 10 100 100 97 39 87 100 61 96 100 100 100 100 100 100 98 100 98 100 94 14 99 100 97 100 100 98 96 100 100 100 100 100 100 100 100 100 100 100 100 100 100 100
48 93 100 100 100 74 100 100 100 100 100 100 100 64 100 100 100 100 100 74 99 76 99 98 100 73 100 100 100 100 100 100 100 100 100 100 100 100 100 100 100 100 100 100
98 100 100 100 100 95 100 100 100 97 100 100 100 100 100 100 100 100 98 100 100 98 75 100 100 97 100 100 100 100 100 100 100 100 100 100 100 100 100 100 100 100 100 100
100 100 100 100 100 100 100 100 100 100 99 100 100 100 100 100 100 100 99 100 100 100 96 100 100 94 98 100 100 100 100 100 100 100 100 100 100 100 100 100 100 100 100 100
100 100 100 100 100 100 100 100 85 100 100 100 100 100 100 100 100 100 68 99 100 100 100 100 100 100 80 95 100 100 100 100 100 100 100 100 100 100 100 100 100 100 100 100
100 100 100 100 100 100 100 100 100 100 100 100 100 100 100 100 100 94 78 100 100 100 100 100 100 100 100 71 100 100 93 82 100 100 100 100 100 100 100 100 100 100 100 100
100 100 100 100 100 100 100 100 100 100 100 100 100 100 100 98 99 92 80 100 100 100 100 100 100 100 100 100 97 100 18 23 49 73 100 100 100 100 100 100 100 100 100 100
100 100 100 91 96 97 100 100 100 100 100 100 100 100 100 100 100 100 100 100 100 100 100 100 100 100 100 100 100 100 18 5 5 5 15 98 100 100 87 100 100 100 100 100
100 100 100 97 62 97 100 100 100 100 100 99 84 77 85 100 99 100 100 100 100 100 100 100 100 100 100 100 100 100 87 5 29 4 5 5 99 100 100 100 100 100 100 100
100 100 100 76 100 100 100 100 100 100 78 26 47 72 97 98 100 100 100 100 100 100 100 100 100 100 100 100 100 100 100 61 9 5 5 5 5 68 100 86 92 94 88 88

GFSCGP_prec_cloud_135.txt.gz
Cloud_Cover
66 100 100 100 100 100 98 99 85 100 52 4 0 0 5 1 10 5 5 0 5 5 0 0 0 0 0 4 5 5 5 5 5 5 5 18 21 12 0 0 0 0 0 0
100 100 100 100 100 98 100 81 95 49 6 18 14 7 5 9 36 5 5 5 5 5 2 3 1 5 5 5 5 5 11 30 73 100 100 100 100 100 93 31 13 0 0 0
95 100 100 100 100 99 100 100 100 100 100 100 93 10 2 2 4 5 5 18 24 5 5 36 37 5 5 5 10 62 77 77 100 100 100 100 100 100 100 100 39 0 0 0
100 100 100 100 100 99 100 100 100 99 27 5 5 1 5 0 0 5 5 6 36 93 100 100 92 5 5 13 62 100 96 100 100 100 100 100 100 100 100 100 100 63 70 30
100 86 100 100 100 99 99 59 6 5 5 1 4 5 0 0 3 5 64 100 100 100 99 58 77 5 23 79 100 100 100 97 100 100 100 100 100 100 100 100 100 100 60 0
19 85 100 79 83 66 6 5 5 5 35 4 16 89 0 5 22 28 100 100 100 84 62 100 18 14 100 100 100 100 100 100 100 100 100 100 100 100 100 100 100 100 100 21
100 100 95 100 100 100 100 100 26 25 12 5 4 4 0 45 100 100 100 91 73 100 100 38 5 55 92 99 99 98 100 100 100 100 100 100 100 100 100 100 100 100 100 100
54 98 100 100 100 100 100 100 100 50 5 5 16 8 48 100 100 80 6 56 100 100 98 5 5 46 100 82 100 89 100 100 100 100 100 100 100 100 100 100 100 100 100 86
5 25 31 100 100 14 5 9 97 100 24 72 95 93 100 100 69 16 100 100 100 97 66 5 5 14 41 80 100 100 100 100 94 100 100 100 100 100 100 100 100 100 100 91
18 96 100 100 100 53 96 26 82 100 100 87 64 100 100 100 57 100 100 100 100 98 45 5 5 5 5 26 78 100 100 98 88 100 100 100 100 100 100 100 100 100 100 100
30 2 3 5 67 10 25 62 99 100 98 90 86 100 100 100 100 100 100 100 100 89 20 5 5 5 5 5 25 29 87 74 94 100 100 100 100 100 100 100 100 100 100 100
33 5 5 30 11 12 6 32 10 100 100 100 90 100 100 100 98 100 100 100 100 98 5 5 5 5 5 5 12 41 31 83 91 100 100 100 100 100 100 100 100 100 100 100
38 5 5 7 7 55 100 76 68 100 100 100 100 100 100 98 100 100 100 100 100 25 5 5 5 5 5 5 6 66 81 100 81 89 100 100 100 100 100 100 100 100 100 100
90 23 6 51 54 87 100 100 100 100 100 100 100 100 100 99 100 100 100 100 100 14 5 5 5 5 5 5 5 9 95 68 100 100 99 100 100 100 100 100 100 100 100 100
7 5 5 5 5 100 100 91 100 100 100 100 100 98 100 100 100 100 100 100 100 5 5 5 5 5 11 29 5 19 12 76 87 100 92 100 100 100 100 100 100 100 100 100
5 51 20 5 1 100 38 68 100 100 100 66 100 100 91 100 100 100 100 100 83 5 5 5 5 5 5 93 25 6 98 98 86 100 100 100 100 100 100 100 100 100 100 100
94 72 33 5 3 35 20 100 100 100 100 92 100 100 99 100 100 100 100 100 99 5 5 5 5 89 6 92 100 79 51 95 34 100 100 100 100 100 100 100 100 100 100 100
5 5 78 90 6 86 74 100 100 100 100 100 97 100 89 100 100 100 100 100 43 11 5 5 38 46 100 28 100 100 96 65 100 94 98 100 100 100 100 100 100 100 100 100
5 25 99 100 72 49 68 95 100 100 100 100 93 30 6 75 100 100 100 100 40 60 5 5 41 77 72 95 100 100 100 100 100 100 100 100 100 100 100 100 100 100 100 100
0 5 100 100 92 100 97 99 94 100 100 81 82 53 34 68 97 100 100 100 92 5 5 34 97 100 100 100 100 100 100 100 100 100 100 100 100 100 100 100 100 100 100 100
38 96 100 100 100 58 100 100 100 100 100 100 80 65 76 38 74 100 100 100 91 84 91 73 100 100 100 100 100 100 100 100 100 100 100 100 100 100 100 100 100 100 100 94
96 100 100 100 100 100 100 100 100 100 100 100 92 96 100 100 100 100 100 100 100 88 78 97 100 100 100 100 100 100 100 100 100 100 100 100 100 100 100 100 100 100 100 98
100 100 100 100 100 100 100 100 100 100 100 100 100 100 100 100 100 100 100 100 100 68 97 100 100 100 100 100 100 100 100 100 100 100 100 100 100 100 100 100 100 100 100 100
100 100 100 100 100 100 100 100 100 100 100 100 100 100 100 100 100 100 96 100 100 93 100 100 100 100 100 100 100 100 100 100 100 100 100 100 94 100 100 100 100 100 100 100
100 100 100 100 100 100 100 100 100 100 100 100 100 100 100 100 98 93 93 100 99 100 100 100 100 100 100 100 100 100 100 100 100 100 100 100 100 62 94 100 100 100 100 100
100 100 100 100 100 97 98 80 100 100 100 100 100 100 100 100 99 93 100 92 100 100 100 100 100 100 100 100 100 100 100 100 100 100 100 100 100 97 60 15 91 29 76 100

GFSCGP_prec_cloud_138.txt.gz
Cloud_Cover
41 49 100 100 100 88 100 97 100 100 100 87 45 5 5 8 89 100 100 100 34 5 5 5 1 1 5 5 5 5 5 5 13 50 84 74 100 100 100 36 14 53 3 3
20 96 100 100 100 100 100 100 100 100 100 66 25 39 98 96 94 49 5 5 5 5 5 5 5 5 5 5 5 12 17 48 79 100 100 100 100 100 100 100 100 100 93 25
83 99 100 100 100 100 100 100 100 100 100 40 17 5 5 9 5 5 5 5 5 5 5 5 5 5 5 17 53 74 94 100 100 100 100 100 100 100 100 100 100 100 100 72
100 100 100 100 100 100 100 100 94 61 5 5 5 4 22 5 5 17 78 54 5 5 5 5 5 5 23 55 100 98 100 100 100 100 100 100 100 100 100 100 100 100 100 100
100 100 100 100 100 100 99 96 81 98 84 5 68 28 2 32 100 100 76 5 5 5 5 5 26 99 100 100 100 100 100 100 100 100 100 100 100 100 100 100 100 100 100 100
84 92 87 68 35 5 5 6 5 5 7 5 13 88 30 80 47 5 5 5 5 5 35 96 100 100 100 100 98 100 100 100 100 100 100 100 100 100 100 100 100 100 100 100
95 14 5 12 69 66 10 5 4 2 5 13 72 51 24 31 6 5 12 16 8 98 84 100 100 100 100 23 68 94 100 100 100 100 100 100 100 100 100 100 100 100 100 100
18 21 12 9 5 10 5 5 56 92 5 17 12 4 0 5 6 96 98 78 46 5 100 100 100 100 100 21 17 36 100 100 100 100 100 100 100 100 100 100 100 100 100 100
71 52 79 46 16 5 6 5 7 50 5 9 2 0 25 5 100 99 100 7 7 100 100 100 100 100 5 24 5 11 74 100 100 100 100 98 100 100 100 100 100 100 100 100
100 100 100 100 100 100 99 21 72 91 68 97 5 5 5 100 100 83 26 37 100 100 100 100 100 85 5 5 5 5 11 79 71 85 100 95 100 100 100 100 100 100 100 100
100 81 100 99 100 100 100 100 52 92 100 87 44 26 100 100 33 30 77 100 93 100 100 100 100 30 5 5 5 5 5 5 5 79 93 97 100 99 100 100 100 100 100 100
83 59 5 34 100 100 100 100 100 85 21 98 100 28 100 98 99 100 100 100 100 100 100 100 100 7 5 5 5 5 5 5 5 33 96 100 100 100 100 100 100 100 100 100
49 5 5 81 100 100 100 100 39 73 93 26 91 24 100 100 100 100 100 100 100 100 100 100 92 5 5 5 5 5 5 5 5 5 6 88 100 100 100 100 100 100 100 100
5 13 96 100 100 100 100 97 65 100 100 36 55 56 100 100 100 100 100 100 100 100 100 100 43 5 5 5 5 5 5 5 46 18 5 71 99 100 100 100 100 100 100 100
84 100 100 100 100 100 81 11 5 5 22 63 96 73 100 100 100 100 100 100 100 100 100 99 9 5 5 5 5 5 5 5 11 96 16 97 91 89 100 100 100 100 100 100
100 100 100 100 43 4 4 3 0 0 65 100 100 100 100 100 100 100 100 100 100 100 100 100 36 5 5 5 5 5 5 5 5 100 56 100 92 100 100 100 100 100 100 100
100 100 97 36 5 3 7 0 0 0 99 100 100 100 98 100 98 100 100 100 100 100 100 92 24 5 5 5 5 5 5 63 7 7 92 100 100 100 100 100 100 100 100 100
32 66 87 87 32 90 0 0 1 5 51 100 100 100 100 98 100 100 100 100 100 100 100 40 51 8 5 5 5 5 5 5 85 70 71 100 100 100 100 100 100 100 100 100
36 7 96 100 68 5 1 5 5 5 98 100 100 100 100 91 99 100 100 100 100 100 88 36 76 12 5 5 5 5 5 5 18 74 95 100 100 100 100 100 100 100 100 100
4 54 96 99 100 100 5 100 82 38 100 100 67 98 95 76 100 100 100 100 89 56 61 79 87 87 83 88 88 92 70 100 72 18 100 76 86 68 100 100 100 100 100 100
5 14 54 70 100 69 92 100 82 97 96 79 24 97 100 94 100 100 95 28 84 100 100 100 93 100 99 100 100 100 100 100 100 100 100 100 100 96 93 100 100 100 100 100
29 82 34 75 100 100 100 87 100 92 94 99 100 100 89 100 94 44 59 59 92 100 100 100 100 99 100 100 100 100 100 100 100 100 100 100 100 100 100 100 100 100 100 100
5 2 51 64 100 100 100 100 100 100 100 100 100 100 100 100 100 100 98 99 100 100 100 100 100 93 100 100 100 100 100 100 100 100 100 100 100 100 100 100 100 100 100 100
5 12 80 100 100 100 100 100 100 100 100 100 100 100 100 99 100 100 100 100 100 100 100 100 100 100 100 100 100 100 100 100 100 100 100 100 100 100 100 100 100 100 100 100
20 90 100 100 100 100 100 100 100 100 100 100 100 100 100 100 100 100 100 100 86 94 100 96 100 100 100 100 100 100 100 100 100 100 100 100 100 100 100 100 100 100 100 100
67 100 100 100 100 100 100 100 100 100 100 100 100 100 100 100 100 100 100 88 100 99 92 97 100 100 100 100 100 100 100 100 100 100 100 100 100 100 100 100 100 100 100 100

GFSCGP_prec_cloud_141.txt.gz
Cloud_Cover
100 100 94 87 57 80 99 56 60 100 100 100 100 100 100 100 100 100 81 11 38 86 83 30 17 5 5 5 5 5 5 5 5 6 16 16 23 17 8 15 34 34 90 100
85 99 88 90 64 44 61 26 82 75 100 100 100 100 100 100 97 79 74 5 29 17 5 3 8 5 5 5 5 5 5 11 40 90 100 100 100 100 98 100 99 79 89 100
41 15 5 5 7 5 6 43 5 34 59 100 100 100 100 99 56 5 8 70 99 63 12 5 5 5 5 5 5 5 23 41 79 100 100 100 100 100 100 100 100 100 99 99
62 61 60 97 74 29 5 5 5 5 21 59 65 15 46 58 28 83 67 82 99 60 41 38 39 5 5 5 7 35 35 48 87 99 100 100 100 100 100 100 100 100 100 100
100 100 100 92 5 8 10 5 5 5 39 61 96 5 97 34 85 5 5 5 5 5 5 5 5 5 8 36 100 100 87 100 69 100 100 100 100 100 100 100 100 100 100 100
100 100 100 100 40 5 14 5 5 5 5 71 80 5 68 5 3 1 5 5 5 5 5 5 5 5 60 69 83 100 98 52 63 100 100 100 100 100 100 100 100 100 100 100
100 100 100 96 51 85 79 64 30 5 5 5 10 37 74 13 7 4 5 5 5 5 5 5 16 6 5 58 100 100 98 47 63 100 100 100 100 100 100 100 100 100 100 100
100 100 100 100 100 100 98 95 99 78 69 99 96 5 69 19 6 5 5 5 5 37 13 95 28 5 100 100 100 100 20 46 51 94 97 100 100 100 100 100 100 100 100 100
100 100 100 97 99 100 100 100 83 100 71 5 5 91 100 100 71 24 14 5 5 5 40 5 70 100 100 100 100 16 15 36 30 84 92 96 100 100 100 100 100 100 100 100
100 100 86 89 100 100 100 100 60 25 34 66 35 96 100 100 95 34 16 10 89 48 54 100 100 100 100 100 67 5 5 5 7 54 100 96 100 100 100 100 100 95 100 100
100 100 76 94 100 100 100 81 35 28 19 79 72 28 77 94 33 47 5 5 31 68 100 100 100 100 100 100 9 5 5 5 5 23 98 97 77 96 100 100 100 100 100 100
100 99 100 74 92 100 100 100 100 100 69 97 84 37 82 95 10 94 70 99 22 82 100 100 100 100 100 76 5 5 5 5 5 5 71 100 89 57 100 100 100 100 100 100
100 100 59 46 79 96 99 100 99 100 100 100 100 97 83 90 79 85 72 97 96 96 100 100 100 100 100 61 5 5 5 5 5 5 5 56 94 98 100 100 100 100 100 100
86 75 6 13 5 5 10 22 73 100 100 100 94 5 18 98 48 85 100 100 99 100 100 100 100 100 100 80 5 5 5 5 5 5 5 5 52 72 98 97 100 100 100 100
98 87 7 5 5 4 10 79 100 100 100 64 50 5 4 57 18 100 100 100 92 100 100 100 100 100 100 100 5 5 5 5 2 1 5 5 5 42 82 100 100 100 100 100
100 97 80 5 5 30 100 100 59 5 5 5 5 2 5 14 100 100 100 100 100 100 100 100 100 100 100 100 5 5 5 5 5 0 4 1 5 38 96 97 100 100 100 100
100 59 55 8 97 100 5 5 5 5 5 4 4 0 95 100 97 100 100 100 100 100 100 81 100 100 100 98 43 33 30 5 5 5 5 5 5 92 100 100 100 100 100 100
100 100 82 100 94 64 5 5 9 2 0 4 5 5 57 100 100 100 100 100 100 100 99 59 100 100 100 99 50 60 45 5 5 18 5 5 5 8 100 100 100 100 100 100
100 100 100 100 98 8 20 2 1 4 3 100 99 8 94 100 100 100 100 84 100 98 79 100 100 100 100 88 80 92 82 74 92 97 93 27 40 99 100 100 100 100 100 95
100 98 100 100 100 88 0 2 6 18 8 99 89 98 100 100 100 100 99 64 87 100 50 96 84 93 91 73 84 77 100 100 100 100 100 100 100 100 100 100 100 100 100 100
100 71 71 64 100 46 0 5 76 98 62 18 89 100 100 100 79 93 80 99 100 100 100 75 88 80 85 98 91 97 100 98 98 100 100 100 100 100 100 100 100 100 100 100
51 6 35 85 98 49 5 70 100 96 100 94 100 100 100 100 100 100 100 100 100 100 100 100 100 100 100 87 96 100 100 99 100 100 100 100 100 100 100 100 100 100 99 100
7 1 32 65 5 18 93 100 100 100 100 100 100 100 100 100 100 100 100 100 100 93 92 94 99 100 100 90 100 100 100 100 100 100 100 100 100 100 100 100 100 100 100 100
5 5 18 36 10 75 100 100 100 100 100 100 100 100 100 100 100 100 100 100 100 100 100 100 86 100 100 89 97 100 100 100 100 100 100 100 100 100 100 100 100 100 100 100
1 4 5 5 5 100 100 100 100 100 100 100 100 100 100 100 100 100 100 100 100 100 93 92 97 98 100 100 100 100 100 100 100 100 100 100 100 100 100 100 100 100 100 99
4 5 5 92 36 100 100 100 100 100 100 100 100 100 100 100 100 100 100 100 87 95 82 99 92 100 98 100 100 100 100 100 100 100 100 100 100 100 100 100 100 100 100 100

GFSCGP_prec_cloud_144.txt.gz
Cloud_Cover
68 85 95 100 100 100 100 100 92 16 37 53 14 7 9 65 80 83 82 9 99 23 5 5 1 0 0 5 5 4 5 5 5 2 3 0 0 0 1 15 62 83 62 80
33 86 28 5 56 75 84 86 44 99 98 46 45 32 18 5 5 5 5 5 5 5 2 0 0 0 0 2 2 0 1 0 4 4 1 9 29 27 46 56 72 86 100 100
97 94 40 11 5 82 76 65 48 14 59 92 97 14 5 5 5 5 5 3 4 0 0 0 0 0 0 1 5 5 5 5 2 40 6 13 24 39 55 50 61 97 100 100
30 85 56 64 61 93 58 28 17 17 24 51 50 8 5 5 5 6 5 5 7 13 6 5 2 5 0 1 5 5 5 5 12 58 45 81 98 99 97 99 99 99 99 100
56 17 5 18 68 98 99 86 96 99 82 6 5 5 97 12 100 19 21 80 98 92 9 5 5 0 0 0 0 5 27 38 30 97 72 82 100 100 100 100 100 100 100 100
87 55 95 89 48 48 75 60 77 84 100 62 5 70 95 100 100 100 100 92 14 5 5 5 3 0 0 1 5 24 5 40 93 52 70 100 100 100 100 100 100 100 100 100
85 20 8 5 24 76 78 88 100 72 73 85 5 5 96 84 100 77 37 11 59 96 100 11 5 5 5 6 5 5 96 100 89 67 92 100 100 100 100 100 100 100 100 100
90 8 46 95 100 100 98 100 100 79 9 5 5 4 5 7 5 5 5 5 89 86 18 5 5 5 5 7 38 100 100 100 50 56 91 100 100 100 100 100 100 100 100 100
100 100 100 100 100 100 100 100 66 9 5 4 5 5 5 15 5 5 5 5 6 5 6 5 5 5 5 75 100 100 100 82 5 43 98 100 100 100 100 100 100 100 100 100
100 100 100 100 100 100 100 96 5 54 52 14 3 7 5 55 4 5 97 21 13 61 42 5 16 17 100 100 100 100 100 5 5 10 84 99 100 100 100 100 100 100 99 100
100 100 100 100 99 97 82 9 5 32 5 60 18 5 16 72 100 100 100 100 100 21 14 5 16 100 100 100 100 100 93 5 5 5 35 100 100 100 100 100 100 100 100 100
87 93 85 72 99 100 100 98 95 98 77 100 62 35 4 5 4 4 98 100 74 66 10 7 99 100 100 100 100 100 99 5 6 5 9 24 99 100 100 100 100 100 99 100
80 94 100 100 100 100 100 100 100 100 100 100 42 24 10 40 17 5 32 80 62 100 26 69 100 100 100 100 100 100 100 45 5 5 5 5 17 71 98 100 100 100 100 100
96 41 79 100 100 93 87 66 100 100 100 44 18 19 100 71 5 22 5 56 83 100 88 100 100 100 100 90 100 100 100 23 3 5 5 5 5 5 25 82 96 100 99 100
28 5 6 54 32 33 20 77 100 100 100 51 8 8 6 5 5 6 43 70 90 100 100 100 100 100 100 83 100 100 100 12 5 5 4 4 5 5 5 6 55 100 99 100
100 99 89 47 6 32 34 100 100 46 69 5 5 5 8 5 8 44 48 33 100 100 100 100 100 100 100 100 100 100 70 61 5 5 5 5 4 0 2 5 14 23 100 98
100 100 38 5 5 58 94 87 97 65 83 11 30 41 100 46 10 71 100 100 100 100 100 100 100 100 100 100 100 100 100 84 5 5 5 5 5 3 3 5 6 5 90 100
100 100 16 5 38 38 66 90 100 100 64 85 100 100 93 70 59 77 100 100 100 100 100 100 100 100 99 100 100 100 100 82 67 40 29 38 36 13 100 39 66 70 42 93
100 100 89 94 36 20 88 100 99 24 10 100 98 100 100 100 56 78 100 100 100 100 100 100 100 100 100 96 100 73 92 100 100 81 92 99 100 72 100 100 100 100 100 99
100 87 100 100 100 68 100 26 5 5 63 72 100 100 100 100 84 100 100 99 100 100 88 82 63 98 100 40 38 46 83 100 100 98 100 100 100 100 100 100 100 100 100 100
100 100 100 100 88 92 76 7 5 82 89 82 100 80 100 100 100 100 100 100 100 100 85 66 82 100 100 56 61 10 86 78 91 100 100 99 100 100 100 100 100 100 100 100
100 100 100 99 100 78 5 5 17 38 47 100 100 100 100 100 100 100 100 77 83 99 78 93 100 100 86 73 71 54 51 87 88 100 100 100 100 100 100 100 100 100 100 100
100 100 100 100 99 94 3 5 53 98 100 100 100 100 100 100 100 100 100 100 100 100 100 100 100 100 100 78 28 52 96 95 100 100 100 100 100 100 100 100 100 100 100 100
100 100 92 18 7 2 5 5 100 100 100 100 100 100 100 100 100 100 100 100 100 100 100 100 94 71 75 89 69 89 99 94 100 100 100 100 100 100 100 100 100 100 100 100
100 97 17 5 5 5 5 96 100 100 100 100 100 100 100 100 100 100 100 100 100 100 100 92 93 76 94 93 88 85 100 98 100 100 100 100 100 100 100 100 100 100 100 100
93 11 38 5 5 32 86 100 100 100 100 100 100 100 100 100 100 100 100 100 100 100 98 90 63 74 98 93 89 99 100 100 100 100 100 100 100 100 100 100 100 100 100 100